GFSSGP_con_sbcape_009.txt.gz
CAPE
0 0 0 0 0 0 0 0 0 0 197 186 194 189 211 296 247 77 636 326 141 191 463 734 1208 1686 1913 1983 2107 2305 2627 2767 2619 2474 2263 2085 1859 1836 1580 1514 1076 527 799 649 693 1167 1476 855 999
0 0 0 0 0 0 0 0 0 16 300 269 293 417 578 799 725 837 732 333 165 340 556 752 1319 1582 1673 1724 1913 2155 2145 2475 2724 2859 2507 2325 2140 2003 1967 1499 621 509 520 1044 1167 1063 1514 937 839
0 0 0 0 0 0 0 0 0 25 74 3 486 521 610 823 928 945 620 396 439 513 492 731 1229 1477 1615 1725 1822 1930 2035 2376 2355 2654 2645 2422 2295 2114 1834 1038 906 593 680 988 1080 1347 1195 858 276
0 0 0 0 0 0 0 0 0 2 47 254 428 599 613 546 961 968 634 502 490 549 562 683 1131 1496 1641 1714 1714 1743 1828 2056 2345 2315 2236 2348 2267 2149 1883 1145 842 660 813 910 1153 1019 920 789 565
0 0 0 0 0 0 0 0 0 17 79 101 136 410 745 671 855 777 736 653 559 585 687 724 998 1356 1709 1611 1554 1716 1837 1905 2024 2295 2191 2110 1965 1623 1186 1217 1232 1036 936 1181 1304 1614 1508 905 572
0 0 0 0 0 0 0 0 0 27 57 108 132 244 444 546 1140 938 950 887 651 700 825 891 1125 1171 1293 1498 1476 1483 1658 1750 1682 1782 1976 2037 1864 1758 1683 1260 843 944 1076 1280 809 759 429 751 293
0 0 0 0 0 0 0 0 0 0 0 7 112 703 595 726 912 1015 1210 1037 853 863 909 890 952 1050 1145 978 936 1071 1368 1517 1554 1378 1428 1346 1315 1374 1305 1257 1364 1400 1332 1147 545 704 387 322 394
0 0 0 0 0 0 0 0 0 0 0 0 9 189 1041 814 740 864 1120 1200 1022 838 869 758 733 659 405 358 634 624 1000 1286 1284 1084 968 722 753 752 715 558 837 639 614 384 262 307 407 456 317
0 0 0 0 0 0 0 0 0 0 0 0 1 0 18 495 567 392 589 761 1082 1135 795 657 625 418 115 0 141 582 746 961 1184 1054 690 336 133 21 0 198 324 364 164 61 16 0 0 0 0
0 0 0 0 0 0 0 0 0 0 0 102 163 19 96 610 572 413 570 839 846 1130 1037 708 650 519 175 167 178 188 387 438 476 744 294 116 14 0 0 26 71 10 0 0 0 0 0 0 0
0 0 0 0 0 0 0 0 0 0 0 14 34 118 523 779 684 484 380 630 456 925 568 452 645 392 321 264 125 102 193 110 56 69 151 10 0 0 0 0 0 0 0 0 0 0 0 0 0
0 0 0 0 0 0 0 0 0 0 0 0 0 0 485 847 419 116 62 54 1 0 0 0 1 0 0 2 154 213 131 56 16 0 0 0 0 0 0 0 0 0 0 0 0 0 0 0 0
0 0 0 0 0 0 0 0 0 0 0 0 0 7 368 525 251 24 3 0 0 0 0 0 0 0 0 0 0 0 0 12 0 0 0 0 0 0 0 0 0 0 0 0 0 0 0 0 0
0 0 0 0 0 0 0 0 0 0 0 0 0 0 61 98 45 0 0 0 0 0 0 0 0 0 0 0 0 0 0 0 0 0 0 0 0 0 0 0 0 0 0 0 0 0 0 0 0
0 0 0 0 0 0 0 0 0 0 0 0 0 0 0 0 0 0 0 0 0 0 0 0 0 0 0 0 0 0 0 0 0 0 0 0 0 0 0 0 0 0 0 0 0 0 0 0 0
0 0 0 0 0 0 0 0 0 0 0 0 0 0 0 0 0 0 0 0 0 0 0 0 0 0 0 0 0 0 0 0 0 0 0 0 0 0 0 0 0 0 0 0 0 0 0 0 0
0 0 0 0 0 0 0 0 0 0 0 0 0 0 0 0 0 0 0 0 0 0 0 0 0 0 0 0 0 0 0 0 0 0 0 0 0 0 0 0 0 0 0 0 0 0 0 0 0
0 0 0 0 0 0 0 0 0 0 0 0 0 0 0 0 0 0 0 0 0 0 0 0 0 0 0 0 0 0 0 0 0 0 0 0 0 0 0 0 0 0 0 0 0 0 0 0 0
0 0 0 0 0 0 0 0 0 0 0 0 0 0 0 0 0 0 0 0 0 0 0 0 0 0 0 0 0 0 0 0 0 0 0 0 0 0 0 0 0 0 0 0 0 0 0 0 0
0 0 0 0 0 0 0 0 0 0 0 0 0 0 0 0 0 0 0 0 0 0 0 0 0 0 0 0 0 0 0 0 0 0 0 0 0 0 0 0 0 0 0 0 0 0 0 0 0
0 0 0 0 0 0 0 0 0 0 0 0 0 0 0 0 0 0 0 0 0 0 0 0 0 0 0 0 0 0 0 0 0 0 0 0 0 0 0 0 0 0 0 0 0 0 0 0 0
0 0 0 0 0 0 0 0 0 0 0 0 0 0 0 0 0 0 0 0 0 0 0 0 0 0 0 0 0 0 0 0 0 0 0 0 0 0 0 0 0 0 0 0 0 0 0 0 0
0 0 0 0 0 0 0 0 0 0 0 0 0 0 0 0 0 0 0 0 0 0 0 0 0 0 0 0 0 0 0 0 0 0 0 0 0 0 0 0 0 0 0 0 0 0 0 0 0
0 0 0 0 0 0 0 0 0 0 0 0 0 0 0 0 0 0 0 0 0 0 0 0 0 0 0 0 0 0 0 0 0 0 0 0 0 0 0 0 0 0 0 0 0 0 0 0 0
0 0 0 0 0 0 0 0 0 0 0 0 0 0 0 0 0 0 0 0 0 0 0 0 0 0 0 0 0 0 0 0 0 0 0 0 0 0 0 0 0 0 0 0 0 0 0 0 0
0 0 0 0 0 0 0 0 0 0 0 0 0 0 0 0 0 0 0 0 0 0 0 0 0 0 0 0 0 0 0 0 0 0 0 0 0 0 0 0 0 0 0 0 1 0 0 0 0
0 0 0 0 0 0 0 0 0 0 0 0 0 0 0 0 0 0 0 0 0 0 0 0 0 0 0 0 0 0 0 0 0 0 0 0 0 0 0 0 0 0 0 0 0 2 3 0 0
0 0 0 0 0 0 0 0 0 0 0 0 0 0 0 0 0 0 0 0 0 0 0 0 0 0 0 0 0 0 0 0 0 0 0 0 0 0 0 0 0 0 0 0 0 0 0 0 0
0 0 0 0 0 6 12 0 0 0 0 0 0 0 0 0 0 0 0 0 0 0 0 0 0 0 0 0 0 0 0 0 0 0 0 0 0 0 0 0 0 0 0 0 0 0 0 0 0
0 0 0 0 0 0 0 0 0 0 0 0 0 0 0 0 0 0 0 0 0 0 0 0 0 0 0 0 0 0 0 0 0 0 0 0 0 0 0 0 0 0 0 0 0 0 0 0 0

GFSSGP_con_sbcape_012.txt.gz
CAPE
0 0 0 0 0 0 0 0 0 0 64 65 72 27 158 304 184 78 457 205 174 335 484 853 1317 1621 1754 1943 2179 2443 2508 2597 2380 2349 2169 2040 1941 1721 1793 1366 785 821 904 992 839 1502 1862 1451 1432
0 0 0 0 0 0 0 0 0 11 213 177 185 221 384 577 584 653 455 150 193 312 471 834 1229 1390 1541 1678 1920 2131 2343 2580 2840 2650 2490 2253 2032 1734 1783 1000 853 801 909 1275 1374 1359 1850 1427 1193
0 0 0 0 0 0 0 0 38 108 190 59 407 398 481 743 760 701 387 212 371 401 469 1047 1155 1257 1472 1595 1694 1897 2114 2313 2570 2784 2667 2544 2364 2180 1852 979 1023 725 761 1195 1226 1451 1490 1441 816
0 0 0 0 0 0 0 0 63 100 50 227 404 512 454 458 868 674 331 392 311 293 345 972 1098 1280 1470 1599 1555 1575 1766 2118 2169 2208 2414 2433 2326 2181 1965 1523 1039 755 971 1113 1300 1441 1292 927 977
0 0 0 0 0 0 0 0 0 8 30 28 81 484 623 646 602 451 438 387 250 261 306 732 1064 1335 1525 1463 1461 1648 1747 1794 2011 2142 2138 2157 1969 1658 1286 1133 1330 1236 1109 1357 1459 1357 1215 974 855
0 0 0 0 0 0 0 0 0 0 2 90 266 288 419 645 703 572 578 376 307 363 446 520 929 1071 1308 1396 1289 1321 1446 1535 1484 1678 1992 2000 1814 1768 1631 1329 979 1026 1228 1494 971 728 707 438 426
0 0 0 0 0 0 0 0 0 0 0 0 131 456 562 752 785 715 691 389 391 437 506 502 639 767 881 841 874 981 1233 1344 1275 1166 1192 1143 1215 1235 1120 1129 1154 1007 1020 974 807 704 834 702 501
0 0 0 0 0 0 0 0 0 0 0 0 0 485 664 684 732 745 847 622 503 534 468 399 413 391 245 275 533 596 892 1125 1110 882 688 527 518 533 480 285 638 513 320 249 189 161 94 16 0
0 0 0 0 0 0 0 0 0 0 0 0 0 93 13 513 401 640 799 906 796 636 515 317 278 164 0 0 42 426 615 837 1012 768 475 112 5 0 0 150 285 228 124 73 39 20 1 0 0
0 0 0 0 0 0 0 0 0 0 0 8 19 3 157 383 478 694 912 1071 961 862 745 380 296 197 7 0 0 7 108 238 298 496 104 0 0 0 0 0 5 1 0 0 0 0 0 0 0
0 0 0 0 0 0 0 0 0 0 0 0 0 33 329 416 180 519 733 884 902 807 701 560 386 229 147 56 0 0 0 0 0 26 39 0 0 0 0 0 0 0 0 0 0 0 0 0 0
0 0 0 0 0 0 0 0 0 0 0 0 0 9 263 559 295 163 279 447 286 482 771 404 294 223 29 2 3 0 9 0 0 0 0 0 0 0 0 0 0 0 0 0 0 0 0 0 0
0 0 0 0 0 0 0 0 0 0 0 0 0 10 411 530 267 0 27 2 0 109 96 0 0 0 0 0 0 0 0 0 0 0 0 0 0 0 0 0 0 0 0 0 0 0 0 0 0
0 0 0 0 0 0 0 0 0 0 0 0 0 0 156 334 284 0 0 0 0 0 0 0 0 0 0 0 0 0 0 0 0 0 0 0 0 0 0 0 0 0 0 0 0 0 0 0 0
0 0 0 0 0 0 0 0 0 0 0 0 0 0 0 1 0 0 0 0 0 0 0 0 0 0 0 0 0 0 0 0 0 0 0 0 0 0 0 0 0 0 0 0 0 0 0 0 0
0 0 0 0 0 0 0 0 0 0 0 0 0 0 0 0 0 0 0 0 0 0 0 0 0 0 0 0 0 0 0 0 0 0 0 0 0 0 0 0 0 0 0 0 0 0 0 0 0
0 0 0 0 0 0 0 0 0 0 0 0 0 0 0 0 0 0 0 0 0 0 0 0 0 0 0 0 0 0 0 0 0 0 0 0 0 0 0 0 0 0 0 0 0 0 0 0 0
0 0 0 0 0 0 0 0 0 0 0 0 0 0 0 0 0 0 0 0 0 0 0 0 0 0 0 0 0 0 0 0 0 0 0 0 0 0 0 0 0 0 0 0 0 0 0 0 0
0 0 0 0 0 0 0 0 0 0 0 0 0 0 0 0 0 0 0 0 0 0 0 0 0 0 0 0 0 0 0 0 0 0 0 0 0 0 0 0 0 0 0 0 0 0 0 0 0
0 0 0 0 0 0 0 0 0 0 0 0 0 0 0 0 0 0 0 0 0 0 0 0 0 0 0 0 0 0 0 0 0 0 0 0 0 0 0 0 0 0 0 0 0 0 0 0 0
0 0 0 0 0 0 0 0 0 0 0 0 0 0 0 0 0 0 0 0 0 0 0 0 0 0 0 0 0 0 0 0 0 0 0 0 0 0 0 0 0 0 0 0 0 0 0 0 0
0 0 0 0 0 0 0 0 0 0 0 0 0 0 0 0 0 0 0 0 0 0 0 0 0 0 0 0 0 0 0 0 0 0 0 0 0 0 0 0 0 0 0 0 0 0 0 0 0
0 0 0 0 0 0 0 0 0 0 0 0 0 0 0 0 0 0 0 0 0 0 0 0 0 0 0 0 0 0 0 0 0 0 0 0 0 0 0 0 0 0 0 0 0 0 0 0 0
0 0 0 0 0 0 0 0 0 0 0 0 0 0 0 0 0 0 0 0 0 0 0 0 0 0 0 0 0 0 0 0 0 0 0 0 0 0 0 0 0 0 0 0 0 0 0 0 0
0 0 0 0 0 0 0 0 0 0 0 0 0 0 0 0 0 0 0 0 0 0 0 0 0 0 0 0 0 0 0 0 0 0 0 0 0 0 0 0 0 0 0 0 0 0 4 2 3
0 0 0 0 0 0 0 0 0 0 0 0 0 0 0 0 0 0 0 0 0 0 0 0 0 0 0 0 0 0 0 0 0 0 0 0 0 0 0 0 0 0 0 0 0 1 4 9 3
0 0 0 0 0 0 0 0 0 0 0 0 0 0 0 0 0 0 0 0 0 0 0 0 0 0 0 0 0 0 0 0 0 0 0 0 0 0 0 0 0 0 0 0 0 0 1 0 0
0 0 0 0 0 0 0 0 0 0 0 0 0 0 0 0 0 0 0 0 0 0 0 0 0 0 0 0 0 0 0 0 0 0 0 0 0 0 0 0 0 0 0 0 0 0 0 0 0
0 0 0 0 0 0 0 0 0 0 0 0 0 0 0 0 0 0 0 0 0 0 0 0 0 0 0 0 0 0 0 0 0 0 0 0 0 0 0 0 0 0 0 0 0 0 0 0 0
0 0 0 0 0 0 0 0 0 0 0 0 0 0 0 0 0 0 0 0 0 0 0 0 0 0 0 0 0 0 0 0 0 0 0 0 0 0 0 0 0 0 0 0 0 0 0 0 0

GFSSGP_con_sbcape_015.txt.gz
CAPE
0 0 0 0 0 0 0 0 0 3 91 83 72 53 168 272 127 124 386 214 215 473 766 1002 1180 1328 1552 1872 2190 2241 2106 2296 2135 1977 1952 1944 1884 2032 1590 969 876 891 1143 1321 1101 1607 1817 1580 1445
0 0 0 0 0 0 0 0 0 69 211 129 186 261 365 292 563 551 352 156 237 385 729 1116 1121 1263 1379 1569 1812 2176 2527 2557 2565 2318 2216 2035 1875 1894 1702 1188 1041 976 1022 1312 1518 1540 1909 1472 968
0 0 0 0 0 0 0 0 124 171 51 120 382 352 418 597 671 622 528 199 273 366 696 1090 1103 1137 1275 1409 1639 1917 2038 2368 2648 2638 2533 2408 2244 2125 1762 1202 1131 854 874 1006 1310 1438 1583 1312 1040
0 0 0 0 0 0 0 18 199 135 66 296 360 304 391 453 769 761 296 290 295 366 740 927 949 1017 1192 1372 1460 1458 1662 1941 2024 2175 2280 2329 2280 2149 1802 1573 1079 792 991 1213 1435 1581 1533 1228 989
0 0 0 0 0 0 0 0 48 30 60 161 171 414 511 698 684 525 437 402 264 308 536 836 878 1056 1281 1277 1231 1434 1495 1586 1777 1820 1858 1910 1665 1441 1203 842 943 1189 1101 1433 1223 849 781 585 654
0 0 0 0 0 0 0 0 0 7 51 135 345 319 467 644 714 633 561 452 243 184 361 644 882 1046 1139 1132 1093 1153 1296 1297 1338 1588 1707 1693 1605 1549 1464 1434 1421 1342 1275 1232 963 1034 869 634 776
0 0 0 0 0 0 0 0 0 0 6 0 132 265 497 850 845 766 695 397 330 313 375 529 638 675 698 630 656 838 1001 1078 964 994 918 952 979 899 904 992 912 856 616 597 534 433 458 241 115
0 0 0 0 0 0 0 0 0 0 0 0 41 187 636 896 920 890 833 521 502 592 545 597 769 680 644 621 338 483 744 887 780 694 443 330 293 285 160 170 392 360 300 252 177 104 48 6 0
0 0 0 0 0 0 0 0 0 0 0 0 0 219 46 1013 956 1079 1161 745 766 721 779 743 776 634 318 155 256 335 496 708 762 580 262 166 363 191 136 69 138 96 52 16 1 0 0 0 0
0 0 0 0 0 0 0 0 0 0 0 0 0 0 311 987 1119 1292 1420 1208 1089 1049 1040 860 889 813 406 13 249 423 457 725 861 948 645 375 251 144 7 1 0 0 0 0 0 0 0 0 0
0 0 0 0 0 0 0 0 0 0 0 0 0 105 648 1111 1252 1420 1547 1604 1450 1317 1206 1004 1007 972 712 406 245 325 430 557 565 660 649 476 357 219 91 25 1 0 0 0 0 0 0 0 0
0 0 0 0 0 0 0 0 0 0 0 0 0 402 761 855 1230 1422 1574 1666 1470 1482 1574 1455 1126 1008 966 812 703 376 522 564 633 530 373 431 329 170 43 0 0 0 0 0 0 0 0 0 0
0 0 0 0 0 0 0 0 0 0 0 0 0 253 823 951 972 1143 1393 1398 1155 1336 1577 1611 1133 847 463 74 281 442 559 732 714 575 419 241 216 126 0 0 0 0 0 0 0 0 0 0 0
0 0 0 0 0 0 0 0 0 0 0 0 0 80 706 990 924 479 290 672 606 924 1105 838 219 49 2 0 81 276 378 449 381 400 346 123 99 53 0 0 0 0 0 0 0 0 0 0 0
0 0 0 0 0 0 0 0 0 0 0 0 0 0 267 618 673 568 227 125 173 169 73 31 0 0 0 0 0 0 0 0 3 47 29 30 23 11 0 0 9 20 0 0 0 0 0 0 0
0 0 0 0 0 0 0 0 0 0 0 0 0 0 0 31 95 0 0 0 0 0 0 0 0 0 0 0 0 0 0 0 0 0 0 0 0 2 19 24 45 48 39 20 0 0 0 0 0
0 0 0 0 0 0 0 0 0 0 0 0 0 0 0 0 0 0 0 0 0 0 0 0 0 0 0 0 0 0 0 0 0 0 0 0 0 0 0 3 4 6 0 0 0 0 0 0 0
0 0 0 0 0 0 0 0 0 0 0 0 0 0 0 0 0 0 0 0 0 0 0 0 0 0 0 0 0 0 0 0 0 0 0 0 0 0 0 0 0 0 0 0 0 0 0 0 0
0 0 0 0 0 0 0 0 0 0 0 0 0 0 0 0 0 0 0 0 0 0 0 0 0 0 0 0 0 0 0 0 0 0 0 0 0 0 0 0 0 0 0 0 0 0 0 0 0
0 0 0 0 0 0 0 0 0 0 0 0 0 0 0 0 0 0 0 0 0 0 0 0 0 0 0 0 0 0 0 0 0 0 0 0 0 0 0 0 0 0 0 0 0 0 0 0 0
0 0 0 0 0 0 0 0 0 0 0 0 0 0 0 0 0 0 0 0 0 0 0 0 0 0 0 0 0 0 0 0 0 0 0 0 0 0 0 0 0 0 0 0 0 0 0 0 0
0 0 0 0 0 0 0 0 0 0 0 0 0 0 0 0 0 0 0 0 0 0 0 0 0 0 0 0 0 0 0 0 0 0 0 0 0 0 0 0 0 0 0 0 0 0 0 0 0
0 0 0 0 0 0 0 0 0 0 0 0 0 0 0 0 0 0 0 0 0 0 0 0 0 0 0 0 0 0 0 0 0 0 0 0 0 0 0 0 0 0 0 0 0 0 0 0 0
0 0 0 0 0 0 0 0 0 0 0 0 0 0 0 0 0 0 0 0 0 0 0 0 0 0 0 0 0 0 0 0 0 0 0 0 0 0 0 0 0 0 0 0 2 7 10 12 7
0 0 0 0 0 0 0 0 0 0 0 0 0 0 0 0 0 0 0 0 0 0 0 0 0 0 0 0 0 0 0 0 0 0 0 0 0 0 0 0 0 0 3 8 12 10 3 2 3
0 0 0 0 0 0 0 0 0 0 0 0 0 0 0 0 0 0 0 0 0 0 0 0 0 0 0 0 0 0 0 0 0 0 0 0 0 0 0 0 0 0 1 5 1 0 3 1 3
0 0 0 0 0 0 0 0 0 0 0 0 0 0 0 0 0 0 0 0 0 0 0 0 0 0 0 0 0 0 0 0 0 0 0 0 0 0 0 0 0 1 2 1 1 0 1 5 7
0 0 0 0 0 0 0 0 0 0 0 0 0 0 0 0 0 0 0 0 0 0 0 0 0 0 0 0 0 0 0 0 0 0 0 0 0 0 0 6 0 0 3 13 19 29 10 4 4
0 0 0 0 0 0 0 0 0 0 0 0 0 0 0 0 0 0 0 0 0 0 0 0 0 0 0 0 0 0 0 0 0 0 0 0 0 0 0 0 0 0 1 10 13 14 8 6 2
0 0 0 0 0 0 0 0 0 0 0 0 0 0 0 0 0 0 0 0 0 0 0 0 0 0 0 0 0 0 0 0 0 0 0 0 0 0 0 0 0 0 1 0 0 0 0 0 0

GFSSGP_con_sbcape_018.txt.gz
CAPE
0 0 0 0 0 0 0 0 0 87 74 115 103 81 188 327 244 461 549 469 151 313 785 1030 1124 1341 1620 2002 1899 1853 1849 1860 1784 1796 1879 1861 2016 1682 1400 1034 901 996 1319 1314 1490 1479 1774 1639 1531
0 0 0 0 0 0 0 0 1 69 116 110 138 166 127 179 368 505 577 443 196 337 679 983 992 1218 1389 1619 1859 2107 2272 2148 2150 2098 1970 1807 1769 1728 1467 1216 1010 1051 1071 1324 1558 1721 1808 1513 1115
0 0 0 0 0 0 0 0 86 142 122 195 231 294 282 332 392 461 430 172 153 357 641 956 924 1041 1187 1351 1483 1615 1832 2069 2227 2283 2111 1929 1900 1812 1574 1436 1222 964 964 1073 1452 1727 1582 1308 1029
0 0 0 0 0 0 0 16 47 146 230 273 111 132 310 540 583 599 473 247 78 144 323 651 773 852 1029 1116 1118 1389 1597 1728 1814 1950 2102 2195 2037 1804 1613 1397 1093 1091 1159 1324 1492 1237 972 772 1054
0 0 0 0 0 0 1 65 123 103 175 267 213 203 250 676 863 756 678 426 110 125 295 374 673 800 991 937 1108 1197 1255 1402 1547 1615 1724 1637 1497 1376 1167 837 876 1056 1158 1436 946 1031 631 532 567
0 0 0 0 0 0 25 65 10 1 79 166 94 70 206 777 829 789 694 427 86 135 353 291 524 819 879 908 1014 1082 1131 1142 1316 1406 1539 1474 1399 1320 1294 1369 1330 1207 1086 1053 898 932 853 902 706
0 0 0 0 0 0 0 0 0 0 2 12 28 49 279 581 597 674 539 300 158 125 272 513 589 528 479 520 589 748 928 884 893 835 859 896 812 803 806 865 770 585 515 480 412 316 237 150 38
0 0 0 0 0 0 0 0 0 0 0 98 115 7 162 450 785 770 570 305 283 425 496 810 917 847 793 702 186 440 658 729 677 541 367 303 345 246 99 221 278 215 165 118 77 26 8 0 0
0 0 0 0 0 0 0 0 0 0 0 0 0 65 188 795 1032 972 753 546 624 797 1096 1152 1129 1140 877 524 485 144 368 639 544 510 181 262 626 580 359 5 17 7 0 0 0 0 0 0 0
0 0 0 0 0 0 0 0 0 0 0 0 0 89 518 1146 1308 1328 1116 869 1013 1180 1401 1524 1672 1562 1158 233 708 759 674 757 980 1100 1070 660 890 783 184 13 0 0 0 0 0 0 0 0 0
0 0 0 0 0 0 0 0 0 0 0 0 0 31 777 1130 1360 1346 1053 405 813 1234 1429 1647 1921 1915 1535 715 522 355 333 589 802 1249 1293 1078 1047 845 667 480 137 60 0 0 0 0 0 0 0
0 0 0 0 0 0 0 0 0 0 0 0 0 0 550 896 943 749 564 383 473 973 1553 1887 1984 2017 1885 1001 555 397 398 448 649 755 1364 1085 761 607 575 223 66 13 0 0 0 0 0 0 0
0 0 0 0 0 0 0 0 0 0 0 0 0 62 229 299 410 560 521 412 713 1224 1605 2104 2318 2248 1506 1146 572 726 763 493 803 661 541 1058 577 371 209 36 0 0 0 0 1 0 0 0 0
0 0 0 0 0 0 0 0 0 0 0 0 0 0 63 152 140 307 739 826 1259 1307 1721 2262 2480 2201 903 425 611 446 494 380 446 208 176 696 728 186 39 0 0 0 0 0 0 0 0 0 0
0 0 0 0 0 0 0 0 0 0 0 0 0 0 4 85 111 244 256 618 873 1050 1383 2035 2221 1201 506 315 188 55 26 82 14 11 72 162 276 86 59 11 7 0 0 0 33 0 0 0 0
0 0 0 0 0 0 0 0 0 0 0 0 0 0 0 77 273 339 711 723 533 497 775 1310 1115 489 394 155 51 6 3 9 3 8 14 16 28 46 51 21 6 17 27 1 0 0 0 0 0
0 0 0 0 0 0 0 0 0 0 0 0 0 0 0 0 340 461 104 76 56 54 180 713 890 315 169 60 28 34 35 44 8 14 5 0 9 18 38 12 12 48 36 6 2 0 0 0 0
0 0 0 0 0 0 0 0 0 0 0 0 0 0 0 0 82 17 0 0 0 2 102 511 416 110 43 5 0 0 0 0 0 0 0 0 0 0 0 0 0 30 51 40 17 26 20 4 0
0 0 0 0 0 0 0 0 0 0 0 0 0 0 0 0 0 0 0 0 0 0 28 32 23 0 0 0 0 0 0 0 0 0 0 0 0 0 0 0 0 2 5 20 40 32 27 40 26
0 0 0 0 0 0 0 0 0 0 0 0 0 0 0 0 0 0 0 0 0 0 0 0 0 0 0 0 0 0 0 0 0 0 0 0 0 0 0 0 0 0 0 0 12 35 48 44 24
0 0 0 0 0 0 0 0 0 0 0 0 0 0 0 0 0 0 0 0 0 0 0 0 0 0 0 0 0 0 0 0 0 0 0 0 0 0 0 0 0 0 0 0 0 0 16 34 43
0 0 0 0 0 0 0 0 0 0 0 0 0 0 0 0 0 0 0 0 0 0 0 0 0 0 0 0 0 0 0 0 0 0 0 0 0 0 0 0 0 0 0 0 0 1 10 24 25
0 0 0 0 0 0 0 0 0 0 0 0 0 0 0 0 0 0 0 0 0 0 0 0 0 0 0 0 0 0 0 0 0 0 0 0 0 0 0 0 0 0 0 0 0 1 8 12 18
0 0 0 0 0 0 0 0 0 0 0 0 0 0 0 0 0 0 0 0 0 0 0 0 0 0 0 0 0 0 0 0 0 0 0 0 0 0 0 0 0 0 0 5 11 8 3 7 4
0 0 0 0 3 0 0 0 0 0 0 0 0 0 0 0 0 0 0 0 0 0 0 0 0 0 0 0 0 0 0 0 0 0 0 0 0 0 0 0 4 5 11 6 10 10 5 3 4
0 0 0 0 0 0 0 0 0 0 0 0 0 0 0 0 0 0 0 0 0 0 0 0 0 0 0 0 0 0 0 0 0 0 0 0 0 0 0 7 11 18 10 24 3 5 3 0 1
0 0 0 0 0 0 0 0 0 0 0 0 0 0 0 0 0 0 0 0 0 0 0 0 0 0 0 0 0 0 0 0 0 0 0 0 0 0 8 15 14 22 21 22 18 19 15 27 24
0 0 0 0 3 0 0 0 0 0 0 0 0 0 0 0 0 0 0 1 0 0 0 0 0 1 9 7 1 0 0 0 0 0 0 0 0 8 20 28 18 8 7 9 7 14 15 36 36
0 0 0 0 0 0 0 0 0 0 0 0 0 0 0 0 2 5 0 0 0 4 12 9 8 12 9 2 0 0 0 0 0 0 0 1 16 20 15 7 12 17 20 17 35 18 15 19 28
0 0 0 0 0 0 1 0 0 0 0 0 0 0 0 6 12 12 7 0 5 7 0 1 1 0 0 0 0 0 0 0 0 0 0 7 15 19 15 21 18 26 18 12 10 6 6 3 2

GFSSGP_con_sbcape_021.txt.gz
CAPE
0 0 0 0 0 0 0 18 31 22 22 17 0 18 28 158 357 403 368 176 371 669 755 884 1078 1354 1721 1667 1702 1710 1767 1734 1656 1707 1744 1827 1675 1496 1263 1079 962 1148 1265 1415 1615 1690 1939 1560 1349
0 0 0 0 0 0 7 0 46 55 1 0 0 18 24 89 334 398 291 141 271 515 774 964 951 1174 1342 1586 1755 2081 1985 1922 1870 1779 1719 1750 1785 1511 1296 1139 1092 1153 1130 1175 1455 1624 1683 1348 1044
0 0 0 0 0 8 7 3 40 2 0 26 4 25 116 120 200 365 190 142 228 400 674 816 854 954 1190 1366 1445 1625 1874 1971 2041 1995 1943 1744 1695 1594 1592 1444 1180 977 1126 1391 1489 1558 1558 1318 1077
0 0 0 0 6 0 4 40 28 0 43 31 0 43 283 288 294 228 123 94 202 250 425 521 623 811 1004 863 1060 1259 1416 1566 1753 1988 2130 2062 1921 1739 1486 1279 1108 1202 1206 1482 1123 962 695 655 867
0 0 0 0 1 8 36 32 35 79 66 22 12 0 296 582 458 250 131 14 18 34 81 160 574 842 866 794 888 946 1051 1227 1391 1602 1611 1505 1443 1329 1147 888 951 1115 1371 1163 1014 964 571 554 711
0 0 1 4 8 4 9 6 0 35 30 0 5 46 398 522 379 333 172 5 1 49 81 60 412 742 823 780 836 879 881 929 1116 1283 1306 1271 1186 1145 1171 1156 1083 920 901 754 766 840 775 616 379
0 2 12 2 2 3 0 0 0 0 0 0 0 6 220 320 384 288 83 0 0 33 122 192 312 368 522 522 654 800 814 662 630 613 686 673 662 654 716 657 556 487 423 379 298 214 159 69 5
0 0 0 1 5 0 0 0 0 0 1 0 0 0 122 294 323 175 12 0 1 51 328 427 461 420 611 587 335 551 680 596 514 372 274 294 384 267 145 424 249 177 118 63 23 1 0 0 0
0 0 0 0 0 0 0 0 0 0 0 0 0 8 41 286 271 203 94 42 209 352 648 628 518 408 250 104 225 167 552 640 484 461 210 289 700 506 411 22 19 5 0 0 0 0 0 0 0
0 0 0 0 0 0 0 0 0 0 0 0 0 0 282 420 352 311 164 186 323 561 586 923 1161 772 298 0 215 260 142 543 572 677 708 518 637 655 140 27 0 0 0 0 0 0 0 0 0
0 0 0 0 0 0 0 0 0 0 0 0 0 0 217 386 481 428 333 175 191 512 536 812 1727 1289 726 318 38 107 109 179 440 700 806 541 619 643 430 318 308 350 3 21 0 0 0 0 0
0 0 0 0 0 0 0 0 0 0 0 0 0 0 88 339 439 443 378 152 131 326 355 811 1948 1788 1031 350 127 88 86 270 270 615 482 423 340 340 231 15 0 2 4 1 3 2 4 6 2
0 0 0 0 0 0 0 0 0 0 0 0 0 0 38 282 394 233 247 284 180 274 403 744 1756 2441 1164 735 196 187 246 250 467 291 188 211 174 129 8 0 0 0 0 4 3 1 1 1 0
0 0 0 0 0 0 0 0 0 0 0 0 0 0 0 10 103 214 264 343 361 357 511 793 1529 2504 1372 206 286 171 249 193 199 31 25 56 131 156 71 41 26 5 0 0 0 0 0 0 0
0 0 0 0 0 0 0 0 0 0 0 0 0 0 0 2 4 40 179 345 325 347 504 928 1605 2202 1341 297 174 23 11 4 0 0 17 30 56 51 71 36 29 21 44 175 40 6 7 9 6
0 0 3 0 0 0 0 9 0 0 0 0 0 0 0 0 0 19 16 96 234 338 396 709 1447 1912 1184 225 76 14 6 0 0 9 19 12 26 31 51 20 41 70 115 42 20 6 4 8 11
0 22 0 0 0 0 0 7 0 0 0 0 0 0 0 0 4 103 336 218 134 101 226 582 1390 1427 802 224 76 50 43 34 24 30 23 0 15 5 28 33 45 154 81 154 137 94 129 53 25
1 0 0 0 0 0 0 0 0 0 0 0 0 0 0 0 17 292 32 0 0 57 176 494 1120 1036 387 125 53 8 1 0 0 1 0 0 4 0 0 1 26 42 23 87 128 217 158 183 165
0 0 0 0 0 0 0 0 0 0 0 0 0 0 0 0 49 0 0 0 0 106 347 539 519 87 38 14 0 0 0 0 0 0 0 0 0 0 0 0 0 5 0 22 95 106 135 158 278
0 0 0 0 0 0 0 0 0 0 0 0 0 0 0 0 0 0 0 0 0 0 0 0 0 0 0 0 0 0 0 0 2 7 0 0 0 0 0 0 0 0 0 3 31 95 62 119 227
0 0 0 0 0 0 0 0 0 0 0 0 0 0 0 0 0 0 0 0 0 0 0 0 0 0 0 0 0 0 0 0 0 0 0 0 0 0 0 0 0 0 0 0 14 29 55 58 87
0 0 0 0 0 12 0 111 0 0 0 0 0 0 0 0 0 0 0 0 0 0 0 0 0 0 0 0 0 0 0 0 0 0 0 0 0 0 0 0 0 0 0 7 7 7 14 51 24
0 0 0 0 0 0 0 0 0 0 0 0 0 0 0 0 0 0 0 0 0 0 0 0 0 0 0 0 0 0 0 0 0 0 0 0 0 0 0 0 0 0 0 5 13 20 13 7 4
0 0 0 0 32 38 64 23 140 3 0 0 0 0 0 0 0 0 0 0 0 0 0 0 0 0 0 0 0 0 0 0 0 0 0 0 0 0 0 0 0 1 13 22 6 4 6 8 4
0 1 152 215 155 227 0 0 53 0 0 0 0 0 0 0 0 0 0 0 2 1 0 0 0 0 0 0 0 0 0 0 1 1 1 0 0 0 0 0 7 23 22 8 13 13 16 2 0
0 0 117 3 51 77 0 0 17 0 0 0 0 0 0 0 0 0 0 0 4 6 7 0 0 0 0 5 5 5 11 8 6 4 2 0 0 0 0 15 29 17 35 36 25 32 29 28 15
4 2 0 0 0 0 0 3 0 0 0 0 0 0 0 0 0 0 1 10 13 11 3 0 1 0 0 8 26 23 17 19 13 3 0 0 0 0 8 28 33 36 11 5 4 20 40 37 35
0 0 29 9 0 0 11 0 58 2 0 18 2 2 0 0 1 6 7 13 12 3 1 8 15 21 25 15 21 19 15 18 5 0 0 2 9 29 34 44 54 5 9 8 23 38 39 40 57
2 6 0 0 0 1 0 0 9 2 0 0 0 1 0 4 7 15 17 12 27 24 17 19 16 14 13 13 13 13 12 8 5 8 13 27 35 27 29 49 27 41 25 20 23 29 19 27 38
0 0 0 0 0 4 1 0 0 0 0 0 8 11 8 7 24 22 24 25 21 14 15 16 7 5 9 8 1 0 5 12 22 25 28 41 22 42 51 44 8 21 17 18 24 29 20 21 29

GFSSGP_con_sbcape_024.txt.gz
CAPE
0 0 0 0 0 0 0 16 46 6 5 0 0 0 9 74 339 230 129 370 720 619 613 817 1151 1490 1625 1757 1843 1832 1786 1741 1785 1914 1933 1733 1458 1297 1247 1274 1248 1260 1273 1397 1650 1755 1747 1383 1176
0 0 0 0 0 0 0 10 9 1 0 0 0 13 7 67 162 72 127 398 520 801 652 649 912 1188 1427 1573 1834 1979 1893 1894 1856 1804 1909 1741 1476 1320 1190 1184 1160 1159 1229 1348 1609 1671 1491 1259 954
0 0 0 0 0 0 0 45 0 0 0 11 0 49 37 72 103 68 94 231 386 601 561 518 711 942 1158 1305 1452 1628 1706 1884 2001 1983 1853 1804 1589 1498 1528 1242 1096 1130 1267 1375 1354 1303 1281 1032 1013
0 0 0 0 0 0 0 23 0 0 9 13 37 68 77 82 72 35 69 169 202 319 337 316 535 757 907 1070 1216 1288 1361 1532 1737 1878 1909 1790 1661 1390 1126 985 1036 1040 1182 1175 961 667 448 460 524
0 0 0 0 3 14 16 5 0 0 5 1 31 113 226 88 35 16 19 8 7 45 66 161 541 811 914 888 801 1053 1137 1313 1439 1422 1407 1317 1249 1176 1042 977 1114 1162 1064 915 843 717 673 748 647
0 0 0 5 0 0 1 0 5 37 5 0 28 142 282 128 51 0 0 0 0 0 0 32 607 795 823 865 873 839 907 982 1145 1211 1167 999 950 969 903 846 712 635 565 530 604 577 437 277 137
0 0 0 4 0 0 0 0 0 9 1 0 0 64 213 171 102 0 0 0 0 0 0 91 125 394 577 566 598 613 636 627 646 640 633 653 697 747 676 540 415 322 261 215 157 109 55 25 3
0 0 0 0 0 0 0 0 0 0 0 0 0 29 127 214 99 0 0 0 0 39 104 214 321 303 313 244 386 507 480 445 407 321 267 319 316 360 515 383 171 99 51 11 0 0 0 0 0
0 0 0 0 0 0 0 0 0 0 0 0 0 3 192 196 88 0 0 0 0 116 581 528 290 436 687 328 290 409 558 479 417 323 199 78 435 277 417 58 80 18 0 0 0 0 0 0 0
0 0 0 0 0 0 0 0 0 0 0 0 0 127 250 146 121 30 0 0 116 445 490 815 739 556 167 3 198 686 669 612 688 751 758 720 579 518 169 127 32 40 3 2 0 0 0 0 0
0 0 0 0 0 0 0 0 0 0 0 0 0 204 249 179 147 82 0 26 194 404 337 963 1566 1021 853 602 59 472 486 665 1132 1351 608 934 478 959 576 354 14 2 14 13 0 0 0 9 0
0 0 0 0 0 0 0 0 0 0 0 0 0 2 218 151 136 132 142 51 49 369 557 1411 1733 1603 852 696 410 307 389 543 652 538 677 522 430 527 163 71 0 0 0 0 4 0 22 0 8
0 0 0 0 0 0 0 0 0 0 0 0 0 0 123 170 197 327 296 106 82 199 430 853 1889 2337 1551 802 856 636 520 813 486 518 476 394 273 314 254 65 24 1 0 0 4 0 0 0 0
0 0 0 0 0 0 0 0 0 0 0 0 0 0 26 228 291 310 281 355 293 296 657 1121 1561 2492 1817 790 550 539 710 753 631 252 92 173 213 278 167 74 60 18 0 0 0 0 0 0 0
0 0 0 0 0 0 0 0 0 0 0 0 0 0 0 12 46 199 221 367 312 214 709 1211 656 2192 1913 730 406 221 223 36 64 107 36 52 58 68 76 69 60 47 83 64 28 18 1 0 0
0 0 0 0 0 0 0 0 0 0 0 0 0 0 0 22 15 45 187 266 274 311 206 171 958 2194 1968 1073 410 126 87 62 42 27 63 28 15 85 84 95 90 106 112 70 80 55 26 4 2
0 0 13 0 0 0 0 0 0 0 0 0 0 0 0 0 26 68 41 269 225 433 392 518 1242 1797 1645 909 268 168 93 53 59 115 47 54 3 67 30 29 47 85 39 51 66 41 43 28 2
2 0 0 0 0 0 0 0 2 0 0 0 0 0 1 0 29 295 25 1 115 437 463 595 1139 978 618 362 133 61 39 24 36 21 15 5 0 11 3 0 5 32 1 0 1 9 4 17 23
0 0 0 0 0 0 0 0 0 0 0 0 0 0 0 0 0 0 0 0 128 472 321 289 68 64 15 44 0 1 1 0 1 9 26 0 3 0 0 0 0 0 0 0 0 0 0 0 0
0 0 0 0 0 0 0 0 0 0 0 0 0 0 0 0 0 0 0 0 0 0 0 0 0 0 0 0 0 0 0 4 7 15 0 0 1 0 0 0 0 0 0 0 0 0 0 0 0
0 0 0 0 0 0 0 0 0 0 0 0 0 0 0 0 0 0 0 0 0 0 0 0 0 0 0 0 0 0 0 9 1 0 0 5 0 0 0 0 4 0 0 0 0 0 0 0 0
0 0 0 0 0 0 0 8 0 0 0 0 0 0 0 0 0 0 0 0 0 0 0 0 0 0 0 0 0 0 0 0 0 0 0 0 0 0 0 0 0 0 0 0 0 8 1 0 0
0 0 0 0 0 0 0 63 79 0 0 0 0 0 0 0 0 0 0 0 0 1 1 0 0 0 0 0 0 0 0 0 0 0 0 0 0 0 0 0 0 0 0 4 2 0 0 0 0
0 0 0 0 2 319 26 84 24 0 0 0 0 0 0 0 0 0 0 0 0 1 0 0 0 0 0 0 0 0 0 0 0 2 1 0 0 0 0 0 0 0 8 4 0 0 0 1 0
0 1 424 445 500 495 74 12 125 0 0 0 0 0 0 0 0 0 0 0 0 7 6 3 0 0 2 5 15 16 13 17 7 1 0 0 0 0 0 0 8 4 9 1 0 0 1 3 0
0 0 485 46 216 103 0 5 3 0 0 0 0 0 0 0 0 0 0 3 9 19 15 14 3 0 0 3 0 0 4 0 0 0 0 0 0 0 0 26 16 31 26 12 6 14 22 28 17
0 31 0 0 3 13 1 88 9 0 0 0 0 0 9 2 0 1 12 17 10 8 4 0 1 0 2 0 0 0 0 0 0 0 0 0 0 1 10 15 34 2 1 3 8 3 3 15 28
0 0 2 318 21 0 0 2 55 6 2 1 1 0 0 0 6 6 2 2 0 0 6 17 0 0 0 0 0 0 0 0 0 0 0 4 2 0 10 14 2 10 31 5 5 7 16 25 10
0 3 0 0 20 1 0 0 0 6 1 6 0 2 0 0 0 1 2 0 1 0 9 4 2 0 0 0 0 0 0 0 6 6 1 0 0 5 10 19 9 23 3 0 0 4 16 6 4
0 0 0 45 0 54 33 0 0 0 0 1 0 1 2 0 0 0 0 9 10 9 8 6 0 0 0 0 0 0 4 1 0 0 0 0 6 24 26 27 32 30 22 17 20 25 26 29 16

GFSSGP_con_sbcape_027.txt.gz
CAPE
0 0 0 0 0 0 0 0 0 0 0 0 17 82 64 59 83 31 354 421 385 528 797 994 1073 1307 1484 1589 1557 1532 1549 1657 1656 1607 1594 1498 1340 1268 1268 1112 1229 1183 1198 1306 1580 1700 1558 1281 1022
0 0 0 0 0 0 0 0 0 0 0 14 5 8 6 1 24 68 324 448 361 449 573 788 942 1120 1322 1488 1591 1666 1657 1594 1730 1734 1571 1459 1196 1152 1118 1062 1255 1309 1322 1400 1464 1462 1423 1214 1065
0 0 0 0 0 0 0 0 0 0 0 4 0 0 8 6 13 68 437 413 306 295 356 532 667 874 1083 1234 1307 1416 1559 1679 1672 1663 1683 1571 1425 1402 1104 1045 1285 1165 1207 1132 1053 748 532 520 741
0 0 0 0 0 0 1 0 0 0 0 0 0 0 0 0 10 24 181 187 175 101 121 258 434 690 883 1008 1082 1167 1295 1398 1476 1592 1641 1416 1167 971 852 961 1005 1003 1001 890 730 465 344 494 606
0 0 0 0 0 0 0 0 0 0 23 50 5 0 0 0 0 16 75 40 28 0 36 205 425 656 804 801 750 952 1053 1097 1161 1244 1301 1157 1044 1029 984 1008 975 857 622 568 557 554 517 388 278
0 0 0 0 0 0 0 0 15 0 0 65 39 5 0 0 0 0 1 0 0 0 3 158 521 584 627 651 638 651 729 858 930 1018 1040 990 962 919 736 581 458 392 311 266 211 149 117 70 40
0 0 0 0 0 0 0 0 0 0 0 4 61 55 6 0 0 0 0 0 0 0 0 35 179 331 348 320 305 319 401 437 468 480 505 537 635 693 678 493 302 179 107 77 35 4 2 6 11
0 0 0 0 0 0 0 0 0 0 0 6 42 109 55 0 0 0 0 0 0 0 0 0 6 16 40 56 130 105 132 142 144 182 178 166 258 406 448 270 265 110 39 5 0 0 0 0 0
0 0 0 0 0 0 0 0 0 0 0 0 1 110 41 0 0 0 0 0 0 0 0 1 0 0 0 0 96 190 219 132 90 139 100 49 26 104 264 84 105 83 24 0 0 0 0 0 0
0 0 0 0 0 0 0 0 0 0 0 41 148 115 20 0 0 0 0 0 0 57 28 11 2 41 6 0 29 29 131 157 73 103 70 19 75 95 199 12 63 80 43 20 5 0 0 0 0
0 0 0 0 0 0 0 0 0 0 0 16 155 121 3 0 0 0 0 0 9 76 183 85 0 0 5 7 0 46 74 142 160 211 3 11 66 98 38 0 3 0 6 0 0 0 0 0 0
0 0 0 0 0 0 0 0 0 0 0 0 113 72 18 4 0 0 0 0 10 63 359 267 59 82 0 0 0 0 0 7 332 170 11 0 7 0 0 0 0 0 0 0 0 0 0 0 0
0 0 0 0 0 0 0 0 0 0 0 0 99 82 25 4 2 0 0 0 3 34 532 518 285 173 168 1 0 1 28 31 1 11 0 0 5 0 0 0 0 0 0 0 0 0 0 0 0
0 0 0 0 0 0 0 0 0 0 0 0 1 28 0 1 1 0 0 4 13 6 653 813 787 631 411 149 6 40 12 18 9 0 0 1 0 0 1 0 0 0 0 0 0 0 0 0 0
0 0 0 0 0 0 0 0 0 0 0 0 0 0 0 0 1 73 22 0 24 6 549 1182 620 954 724 75 0 1 100 0 0 0 0 0 0 0 0 0 0 0 0 0 0 0 0 0 0
0 0 0 0 0 0 0 0 0 0 0 0 0 0 0 0 5 13 2 1 95 233 575 755 1040 176 445 39 0 0 0 0 0 0 0 0 0 0 0 0 0 0 0 0 0 0 0 0 0
0 0 0 0 0 0 0 0 0 0 0 0 0 0 0 0 0 3 0 0 0 0 0 80 318 785 280 15 0 0 0 0 0 0 0 0 0 0 0 0 0 0 0 0 0 0 0 0 0
0 0 0 0 0 0 0 0 0 0 0 0 0 0 0 0 0 0 0 0 0 0 0 0 0 0 6 0 0 0 0 0 0 0 0 0 0 0 0 0 0 0 0 0 0 0 0 0 0
0 0 0 0 0 0 0 0 0 0 0 0 0 0 0 0 0 0 0 0 0 0 0 0 0 0 0 0 0 0 0 0 0 0 0 0 0 0 0 0 0 0 0 0 0 0 0 0 0
0 0 0 0 0 0 0 0 0 0 0 0 0 0 0 0 0 0 0 0 0 0 0 0 0 0 0 0 0 0 0 0 0 0 0 0 0 0 0 0 0 0 0 0 0 0 0 0 0
0 0 0 0 0 0 0 0 0 0 0 0 0 0 0 0 0 0 0 0 0 0 0 0 0 0 0 0 0 0 0 0 0 0 0 0 0 0 0 0 0 0 0 0 0 0 0 0 0
0 0 0 0 0 0 0 0 0 0 0 0 0 0 0 0 0 0 0 0 0 0 0 0 0 0 0 0 0 0 0 0 0 0 0 0 0 0 0 0 0 0 0 0 0 0 0 0 0
0 0 0 0 0 0 0 0 0 0 0 0 0 0 0 0 0 0 0 0 0 0 0 0 0 0 0 0 0 0 0 0 0 0 0 0 0 0 0 0 0 0 0 0 0 0 0 0 0
0 0 0 0 0 0 2 0 0 0 0 0 0 0 0 0 0 0 0 0 0 0 0 0 0 0 0 0 0 0 0 0 0 0 0 0 0 0 0 0 0 0 0 0 0 0 0 0 0
0 0 5 0 19 8 24 21 10 0 0 0 0 0 0 0 0 0 0 0 0 0 0 0 0 0 0 0 0 0 0 0 0 0 0 0 0 0 0 0 0 0 0 0 3 5 0 0 0
0 0 0 0 0 0 0 0 0 0 0 0 0 0 0 0 0 0 0 0 0 0 0 0 0 0 0 0 0 0 0 0 0 0 0 0 0 0 0 0 0 0 0 0 0 0 3 3 0
0 0 0 0 0 0 0 0 0 0 0 0 0 0 0 0 0 0 0 0 0 0 0 0 0 0 0 0 0 0 0 0 0 0 0 0 0 0 0 0 0 0 0 0 1 0 0 0 0
0 0 0 0 0 0 0 4 3 0 0 0 0 0 0 0 0 0 0 0 0 0 0 0 0 0 0 0 0 0 0 0 0 0 0 0 0 0 0 0 0 0 2 1 0 0 0 0 0
0 0 0 0 0 0 0 0 0 3 3 0 0 0 0 0 0 0 0 0 0 0 0 0 0 0 0 0 0 0 0 0 0 0 0 0 0 0 0 14 23 9 8 1 2 0 2 14 3
0 0 0 0 0 0 0 0 0 0 0 0 0 0 0 0 0 0 0 0 0 0 0 0 0 0 0 0 0 0 0 0 0 0 0 0 0 0 0 0 0 13 27 26 33 26 2 0 0

GFSSGP_con_sbcape_030.txt.gz
CAPE
0 0 0 0 0 0 0 0 0 0 41 57 48 26 7 19 62 141 364 370 528 703 761 869 1063 1284 1292 1297 1334 1428 1649 1454 1335 1228 1225 1155 1025 1011 946 956 1106 1252 1234 1507 1489 1365 1249 1066 922
0 0 0 0 0 0 0 0 2 0 21 10 16 56 108 199 269 392 254 376 526 678 747 841 1045 1252 1372 1405 1425 1360 1474 1403 1456 1291 1125 1049 1060 1013 930 931 1335 1229 1213 1176 1081 937 782 752 751
0 0 0 0 0 0 0 0 0 0 0 0 0 4 25 222 314 327 284 321 348 360 516 681 802 979 1143 1224 1314 1413 1421 1424 1520 1493 1202 1258 1179 975 891 873 1196 1013 931 911 607 409 301 320 403
0 0 0 0 0 0 1 0 0 6 0 0 0 8 10 29 68 347 232 132 91 105 216 416 577 744 951 1067 1145 1252 1331 1346 1459 1511 1421 1142 907 677 663 769 927 852 695 530 427 416 424 393 328
0 0 0 0 0 1 0 0 4 3 4 2 0 0 0 145 271 174 62 20 8 0 59 207 388 616 766 787 809 1015 1073 1076 1185 1247 1195 911 763 790 787 760 635 442 335 344 315 283 182 117 87
0 0 0 0 0 0 0 0 44 18 0 0 0 25 0 56 38 2 0 0 0 0 55 197 442 538 601 664 675 723 779 845 934 1006 1039 913 811 713 496 392 282 239 171 91 43 33 24 25 36
0 0 0 0 0 0 0 0 2 48 60 42 36 19 0 0 0 0 0 0 0 0 4 75 200 262 274 247 266 299 415 513 600 599 639 597 550 566 527 334 178 127 57 8 0 0 0 0 0
0 0 0 0 0 0 0 0 0 0 0 41 21 1 0 0 0 0 0 0 0 0 0 0 12 3 0 22 115 115 148 205 248 243 231 201 261 328 310 212 188 140 41 0 0 0 0 0 0
0 0 0 0 0 0 0 0 0 0 6 2 1 0 0 0 0 0 0 0 0 0 0 0 0 0 0 0 45 118 175 131 108 124 122 60 52 126 174 31 68 127 29 0 0 0 0 0 0
0 0 0 0 0 0 0 0 0 1 63 46 45 0 0 0 0 0 0 0 0 0 0 0 0 0 0 17 54 4 81 15 1 25 28 8 9 6 146 86 77 106 44 23 11 0 0 0 0
0 0 0 0 0 0 0 0 0 0 65 100 42 0 0 0 0 0 0 0 0 0 0 0 0 0 0 1 0 0 11 42 28 60 74 4 65 58 38 0 0 0 1 0 0 0 0 0 0
0 0 0 0 0 0 0 0 0 0 17 110 59 0 0 0 0 0 0 0 0 5 2 0 0 0 0 0 0 1 4 72 112 81 0 0 0 0 0 0 0 0 0 0 0 0 0 0 0
0 0 0 0 0 0 0 0 0 0 31 128 51 8 0 0 0 0 0 0 0 46 25 0 0 0 0 0 0 0 0 32 135 3 0 0 0 0 0 0 0 0 0 0 0 0 0 0 0
0 0 0 0 0 0 0 0 0 0 2 81 55 10 0 0 0 0 0 0 1 123 191 39 13 7 17 0 0 0 0 1 0 0 0 0 0 0 0 0 0 0 0 0 0 0 0 0 0
0 0 0 0 0 0 0 0 0 0 39 93 87 27 0 0 0 0 0 0 0 170 554 404 552 505 422 246 0 0 0 0 0 0 0 0 0 0 0 0 0 0 0 0 0 0 0 0 0
0 0 0 0 0 0 0 0 0 0 0 54 54 17 1 0 0 0 0 0 0 533 918 557 239 86 73 370 68 0 0 0 0 0 0 0 0 0 0 0 0 0 0 0 0 0 0 0 0
0 0 0 0 0 0 0 0 0 0 0 0 0 0 0 0 0 0 0 0 0 22 508 193 107 52 0 138 29 0 0 0 0 0 0 0 0 0 0 0 0 0 0 0 0 0 0 0 0
0 0 0 0 0 0 0 0 0 0 0 0 0 0 0 0 0 0 0 0 0 0 0 4 16 16 68 2 0 0 0 0 0 0 0 0 0 0 0 0 0 0 0 0 0 0 0 0 0
0 0 0 0 0 0 0 0 0 0 0 0 0 0 0 0 0 0 0 0 0 0 0 0 0 0 0 0 0 0 0 0 0 0 0 0 0 0 0 0 0 0 0 0 0 0 0 0 0
0 0 0 0 0 0 0 0 0 0 0 0 0 0 0 0 0 0 0 0 0 0 0 0 0 0 0 0 0 0 0 0 0 0 0 0 0 0 0 0 0 0 0 0 0 0 0 0 0
0 0 0 0 0 0 0 0 0 0 0 0 0 0 0 0 0 0 0 0 0 0 0 0 0 0 0 0 0 0 0 0 0 0 0 0 0 0 0 0 0 0 0 0 0 0 0 0 0
0 0 0 0 0 0 0 0 0 0 0 0 0 0 0 0 0 0 0 0 0 0 0 0 0 0 0 0 0 0 0 0 0 0 0 0 0 0 0 0 0 0 0 0 0 0 0 0 1
0 0 0 0 0 0 0 0 0 0 0 0 0 0 0 0 0 0 0 0 0 0 0 0 0 0 0 0 0 0 0 0 0 0 0 0 0 0 0 0 0 0 0 0 0 0 0 0 0
0 0 0 0 0 0 0 0 0 0 0 0 0 0 0 0 0 0 0 0 0 0 0 0 0 0 0 0 0 0 0 0 0 0 0 0 0 0 0 0 0 0 0 0 0 0 0 0 0
0 0 0 0 0 0 0 0 0 0 0 0 0 0 0 0 0 0 0 0 0 0 0 0 0 0 0 0 0 0 0 0 0 0 0 0 0 0 0 0 0 0 0 0 0 0 0 0 0
0 0 0 0 0 0 0 0 0 0 0 0 0 0 0 0 0 0 0 0 0 0 0 0 0 0 0 0 0 0 0 0 0 0 0 0 0 0 0 0 0 0 0 0 0 0 0 0 0
0 0 0 0 0 0 0 0 0 0 0 0 0 0 0 0 0 0 0 0 0 0 0 0 0 0 0 0 0 0 0 0 0 0 0 0 0 0 0 0 0 0 0 0 0 0 0 0 0
0 0 0 0 0 0 0 0 0 0 0 0 0 0 0 0 0 0 0 0 0 0 0 0 0 0 0 0 0 0 0 0 0 0 0 0 0 0 0 0 0 0 0 0 0 0 0 0 0
0 0 0 0 0 0 0 0 0 0 0 0 0 0 0 0 0 0 0 0 0 0 0 0 0 0 0 0 0 0 0 0 0 0 0 0 0 0 0 0 0 0 0 0 0 0 0 0 0
0 0 0 0 0 0 0 0 0 0 0 0 0 0 0 0 0 0 0 0 0 0 0 0 0 0 0 0 0 0 0 0 0 0 0 0 0 0 0 0 0 0 0 0 0 0 0 0 0

GFSSGP_con_sbcape_033.txt.gz
CAPE
0 0 0 0 0 0 0 0 0 0 0 0 0 16 32 119 105 109 176 305 479 584 533 661 835 1023 1134 1264 1456 1485 1478 1197 1067 981 911 932 859 804 760 875 1051 1154 1231 1017 957 907 866 759 648
0 0 0 0 0 0 0 0 0 30 0 0 0 21 147 358 453 418 380 447 622 635 678 860 1006 1168 1219 1218 1396 1460 1345 1215 1111 1012 952 921 863 829 842 919 979 811 827 736 522 355 242 194 203
0 0 0 0 0 0 0 0 36 26 5 0 0 0 22 588 310 208 280 532 561 574 653 858 948 1073 1209 1250 1240 1359 1387 1371 1307 1212 1090 1064 958 855 717 776 836 740 630 347 238 224 257 211 178
0 0 0 0 0 0 0 0 35 6 4 0 0 2 0 129 253 251 319 266 216 210 353 608 746 867 1054 1211 1267 1274 1285 1275 1297 1325 1214 1019 769 592 637 785 745 524 288 205 185 160 100 55 29
0 0 0 0 0 0 0 0 17 40 27 3 8 6 3 236 200 177 153 140 94 53 183 368 587 766 956 992 1078 1105 1165 1177 1229 1209 1066 719 651 667 725 681 429 263 216 169 64 41 25 12 18
0 0 0 0 0 0 0 37 26 13 14 16 61 28 13 220 154 29 2 0 0 0 39 180 440 582 677 792 815 795 824 879 923 985 1008 898 785 707 484 345 236 164 102 41 3 0 0 0 0
0 0 0 0 10 0 0 5 33 31 55 52 19 6 23 35 5 0 0 0 0 0 0 57 186 308 361 386 436 459 556 623 645 729 758 750 629 527 446 303 169 78 44 1 0 0 0 0 0
0 0 0 0 0 0 0 0 18 92 54 7 0 13 79 0 0 0 0 0 0 0 0 0 0 0 0 34 125 174 248 285 342 376 338 219 236 306 258 165 157 105 24 0 0 0 0 0 0
0 0 0 0 0 0 0 0 0 1 9 3 0 0 0 0 0 0 0 0 0 0 0 0 0 0 0 0 8 69 180 143 163 163 126 80 36 121 179 71 50 149 64 12 0 0 0 0 0
0 0 0 0 0 0 0 8 3 49 43 2 0 0 0 0 0 0 0 0 0 0 0 0 0 0 0 0 1 0 13 0 0 2 7 0 0 0 111 102 141 158 116 122 115 77 11 0 0
0 0 0 0 0 0 0 0 0 59 80 4 0 0 0 0 0 0 0 0 0 0 0 0 0 0 0 0 0 0 0 0 0 0 0 0 6 0 1 0 0 0 0 0 0 0 0 0 0
0 0 0 0 0 0 0 0 0 0 108 27 0 0 0 0 0 0 0 0 0 0 0 0 0 0 0 0 0 0 3 10 30 25 31 0 0 0 0 0 0 0 0 0 0 0 0 0 0
0 0 0 0 0 0 0 0 0 0 35 29 0 0 0 0 0 0 0 0 0 0 0 0 0 0 0 0 0 0 0 40 85 70 0 0 0 0 0 0 0 0 0 0 0 0 0 0 0
0 0 0 0 0 0 0 0 0 0 42 29 2 0 0 0 0 0 0 0 0 0 0 0 0 0 0 0 0 0 0 1 6 3 0 0 0 0 0 0 0 0 0 0 0 0 0 0 0
0 0 0 0 0 0 0 0 0 0 93 95 30 3 0 0 0 0 0 0 2 14 0 0 0 0 3 0 0 0 0 0 0 0 0 0 0 0 0 0 0 0 0 0 0 0 0 0 0
0 0 0 0 0 0 0 0 0 3 88 106 28 0 0 0 0 0 0 0 0 79 102 81 337 0 0 2 0 0 0 0 0 0 0 0 0 0 0 0 0 0 0 0 0 0 0 0 0
0 0 0 0 0 0 0 0 0 0 71 3 0 0 0 0 0 0 0 0 24 356 99 1 0 0 0 0 0 0 0 0 0 0 0 0 0 0 0 0 0 0 0 0 0 0 0 0 0
0 0 0 0 0 0 0 0 0 0 0 0 0 0 0 0 0 0 0 0 0 0 0 0 0 0 0 0 0 0 0 0 0 0 0 0 0 0 0 0 0 0 0 0 0 0 0 0 0
0 0 0 0 0 0 0 0 0 0 0 0 0 0 0 0 0 0 0 0 0 0 0 0 0 0 0 0 0 0 0 0 0 0 0 0 0 0 0 0 0 0 0 0 0 0 0 0 0
0 0 0 0 0 0 0 0 0 0 0 0 0 0 0 0 0 0 0 0 0 0 0 0 0 0 0 0 0 0 0 0 0 0 0 0 0 0 0 0 0 0 0 0 0 0 0 0 0
0 0 0 0 0 0 0 0 0 0 0 0 0 0 0 0 0 0 0 0 0 0 0 0 0 0 0 0 0 0 0 0 0 0 0 0 0 0 0 0 0 0 0 0 0 0 0 0 0
0 0 0 0 0 0 0 0 0 0 0 0 0 0 0 0 0 0 0 0 0 0 0 0 0 0 0 0 0 0 0 0 0 0 0 0 0 0 0 0 0 0 0 0 0 0 0 0 0
0 0 0 0 0 0 0 0 0 0 0 0 0 0 0 0 0 0 0 0 0 0 0 0 0 0 0 0 0 0 0 0 0 0 0 0 0 0 0 0 0 0 0 0 0 0 0 0 0
0 0 0 0 0 0 0 0 0 0 0 0 0 0 0 0 0 0 0 0 0 0 0 0 0 0 0 0 0 0 0 0 0 0 0 0 0 0 0 0 0 0 0 0 0 0 0 0 0
0 0 0 0 0 0 0 0 0 0 0 0 0 0 0 0 0 0 0 0 0 0 0 0 0 0 0 0 0 0 0 0 0 0 0 0 0 0 0 0 0 0 0 0 0 0 0 0 0
0 0 0 0 0 0 0 0 0 0 0 0 0 0 0 0 0 0 0 0 0 0 0 0 0 0 0 0 0 0 0 0 0 0 0 0 0 0 0 0 0 0 0 0 0 0 0 0 0
0 0 0 0 0 0 0 0 0 0 0 0 0 0 0 0 0 0 0 0 0 0 0 0 0 0 0 0 0 0 0 0 0 0 0 0 0 0 0 0 0 0 0 0 0 0 0 0 0
0 0 0 0 0 0 0 0 0 0 0 0 0 0 0 0 0 0 0 0 0 0 0 0 0 0 0 0 0 0 0 0 0 0 0 0 0 0 0 0 0 0 0 0 0 0 0 0 0
0 0 0 0 0 0 0 0 0 0 0 0 0 0 0 0 0 0 0 0 0 0 0 0 0 0 0 0 0 0 0 0 0 0 0 0 0 0 0 0 0 0 1 0 0 0 0 0 0
0 0 0 0 0 0 0 0 0 0 0 0 0 0 0 0 0 0 0 0 0 0 0 0 0 0 0 0 0 0 0 0 0 0 0 0 0 0 0 0 0 0 0 0 0 0 0 0 0

GFSSGP_con_sbcape_036.txt.gz
CAPE
0 0 0 0 0 0 0 0 0 0 5 0 33 26 81 233 173 63 210 336 512 510 388 548 746 1025 1158 1365 1548 1506 1285 920 825 776 833 759 712 672 766 909 1000 870 652 639 546 380 262 174 172
0 0 0 0 0 0 0 0 11 16 10 16 9 36 196 432 484 394 405 633 550 484 534 568 824 1068 1337 1407 1407 1353 1146 994 899 876 829 747 705 758 816 776 694 659 517 296 145 116 135 121 79
0 0 0 0 0 0 0 9 107 49 11 2 0 0 70 537 338 267 431 694 620 636 735 828 856 938 1147 1308 1309 1309 1257 1161 1095 1024 851 839 806 669 575 660 638 438 134 84 57 40 20 10 8
0 0 0 0 0 0 0 96 124 38 23 6 0 11 0 75 251 302 457 558 416 428 599 713 792 910 1087 1189 1262 1223 1178 1094 1082 1127 934 842 602 484 588 634 401 183 100 45 25 14 6 6 3
0 0 0 0 0 0 0 52 41 26 1 6 8 0 42 207 278 312 334 302 316 296 401 539 687 886 1083 1077 1049 1128 1096 1095 1150 1138 1002 659 523 559 593 405 182 112 45 13 3 0 0 0 0
0 0 0 0 0 0 40 108 52 6 14 26 53 10 80 222 258 224 210 137 131 202 211 410 631 779 917 1024 981 925 965 985 978 925 853 734 682 635 370 200 106 41 5 0 0 0 0 0 0
0 0 0 0 0 0 58 6 8 25 26 16 17 103 181 256 64 0 0 0 5 2 47 143 286 474 575 603 598 623 666 684 723 736 710 692 560 477 368 176 76 17 10 0 3 0 0 0 0
0 0 0 0 0 4 0 17 39 62 37 0 30 274 376 119 0 0 0 0 0 0 0 0 10 29 33 152 246 315 392 408 421 462 374 304 238 176 82 37 34 1 11 91 127 57 24 5 0
0 0 0 0 0 0 0 0 0 0 7 0 0 74 116 0 0 0 0 0 0 0 0 0 0 0 0 0 52 201 269 256 245 249 155 76 0 23 63 12 13 137 106 118 178 171 67 18 0
0 0 0 0 0 4 1 0 2 51 44 0 0 0 0 0 0 0 0 0 0 0 0 0 0 0 0 0 0 0 4 9 3 10 8 0 0 0 31 52 53 135 53 45 13 0 0 0 0
0 0 0 0 0 0 0 0 0 65 66 0 0 0 0 0 0 0 0 0 0 0 0 0 0 0 0 0 0 0 0 0 0 0 0 0 2 0 0 0 0 0 0 0 0 0 0 0 0
0 0 0 0 0 0 0 0 71 0 20 2 0 0 0 0 0 0 0 0 0 0 0 0 0 0 0 0 0 0 0 0 0 0 7 0 0 0 0 0 0 0 0 0 0 0 0 0 0
0 0 0 0 0 0 0 0 20 0 9 0 0 0 0 0 0 0 0 0 0 0 0 0 0 0 0 0 0 0 0 16 5 19 17 0 0 0 0 0 0 0 0 0 0 0 0 0 0
0 0 0 0 0 0 0 0 0 0 0 0 0 0 0 0 0 0 0 0 0 0 0 0 0 0 0 0 0 0 0 1 13 7 0 0 0 0 0 0 0 0 0 0 0 0 0 0 0
0 0 0 0 0 0 0 0 0 1 0 0 0 0 0 0 0 0 0 0 0 0 0 0 0 0 0 0 0 0 0 0 0 0 0 0 0 0 0 0 0 0 0 0 0 0 0 0 0
0 0 0 0 0 0 0 0 0 6 41 0 0 0 0 0 0 0 0 0 0 0 0 0 0 0 0 0 0 0 0 0 0 0 0 0 0 0 0 0 0 0 0 0 0 0 0 0 0
0 0 0 0 0 0 0 0 0 0 21 0 0 0 0 0 0 0 0 0 0 0 0 0 0 0 1 0 0 0 0 0 0 0 0 0 0 0 0 0 0 0 0 0 0 0 0 0 0
0 0 0 0 0 0 0 0 0 0 0 0 0 0 0 0 0 0 0 0 0 0 0 0 0 2 0 0 0 0 0 0 0 0 0 0 0 0 0 0 0 0 0 0 0 0 0 0 0
0 0 0 0 0 0 0 0 0 0 0 0 0 0 0 0 0 0 0 0 0 0 0 0 0 1 0 0 0 0 0 0 0 0 0 0 0 0 0 0 0 0 0 0 0 0 0 0 0
0 0 0 0 0 0 0 0 0 0 0 0 0 0 0 0 0 0 0 0 0 0 0 0 0 0 0 0 0 0 0 0 0 0 0 0 0 0 0 0 0 0 0 0 0 0 0 0 0
0 0 0 0 0 0 0 0 0 0 0 0 0 0 0 0 0 0 0 0 0 0 0 0 0 0 0 0 0 0 0 0 0 0 0 0 0 0 0 0 0 0 0 0 0 0 0 0 0
0 0 0 0 0 0 0 0 0 0 0 0 0 0 0 0 0 0 0 0 0 0 0 0 0 0 0 0 0 0 0 0 0 0 0 0 0 0 0 0 0 0 0 0 0 0 0 0 0
0 0 0 0 0 0 0 0 0 0 0 0 0 0 0 0 0 0 0 0 0 0 0 0 0 0 0 0 0 0 0 0 0 0 0 0 0 0 0 0 0 0 0 0 0 0 0 0 0
0 0 0 0 0 0 0 0 0 0 0 0 0 0 0 0 0 0 0 0 0 0 0 0 0 0 0 0 0 0 0 0 0 0 0 0 0 0 0 0 0 0 0 0 0 0 0 0 0
0 0 0 0 0 0 0 0 0 0 0 0 0 0 0 0 0 0 0 0 0 0 0 0 0 0 0 0 0 0 0 0 0 0 0 0 0 0 0 0 0 0 0 0 0 0 0 0 0
0 0 0 0 0 0 0 0 0 0 0 0 0 0 0 0 0 0 0 0 0 0 0 0 0 0 0 0 0 0 0 0 0 0 0 0 0 0 0 0 0 0 0 0 0 0 0 0 0
0 0 0 0 0 0 0 0 0 0 0 0 0 0 0 0 0 0 0 0 0 0 0 0 0 0 0 0 0 0 0 0 0 0 0 0 0 0 0 0 0 0 0 0 0 0 0 0 0
0 0 0 0 0 0 0 0 0 0 0 0 0 0 0 0 0 0 0 0 0 0 0 0 0 0 0 0 0 0 0 0 0 0 0 0 0 0 0 0 0 0 0 0 0 0 0 0 0
0 0 0 0 0 0 0 0 0 0 0 0 0 0 0 0 0 0 0 0 0 0 0 0 0 0 0 0 0 0 0 0 0 0 0 0 0 0 0 0 0 0 0 0 0 0 0 0 0
0 0 0 0 0 0 0 0 0 0 0 0 0 0 0 0 0 0 0 0 0 0 0 0 0 0 0 0 0 0 0 0 0 0 0 0 0 0 0 0 0 0 0 0 0 0 0 0 0

GFSSGP_con_sbcape_039.txt.gz
CAPE
0 0 0 0 0 0 0 0 0 45 22 40 82 99 127 257 185 123 356 530 677 644 571 742 789 1005 1052 1303 1338 1270 1198 932 777 796 773 707 650 727 838 888 758 554 477 207 75 78 81 65 41
0 0 0 0 0 0 0 0 57 48 74 40 48 123 125 214 509 461 454 796 702 585 652 794 900 1163 1370 1425 1353 1221 1087 881 924 819 737 678 721 785 726 565 786 414 113 34 15 6 0 0 0
0 0 0 0 0 0 0 51 155 121 74 4 0 0 2 144 316 262 706 839 675 692 737 912 943 1203 1343 1371 1329 1239 1193 1089 1045 969 783 803 749 572 564 591 582 161 30 11 1 0 0 0 0
0 0 0 0 0 0 0 139 103 63 7 22 6 2 157 238 348 408 887 835 705 617 759 738 813 1050 1290 1386 1335 1249 1164 1068 1053 1012 953 737 479 491 555 381 338 27 0 0 0 0 0 0 3
0 0 0 0 0 0 4 159 73 46 9 0 5 22 123 268 411 523 804 639 623 622 777 938 730 938 1227 1313 1189 1155 1059 1024 1125 1119 958 573 486 510 294 145 77 5 0 0 0 0 0 0 6
0 0 0 0 0 0 62 86 52 54 47 56 112 144 221 348 457 289 375 444 438 688 775 995 748 859 985 1085 1024 945 947 993 962 890 797 708 626 490 178 79 45 6 4 0 0 0 0 0 0
0 0 0 0 12 105 132 113 59 43 56 53 106 360 403 352 251 327 268 336 509 569 721 738 753 815 829 814 785 801 830 798 719 688 681 595 438 336 253 171 76 0 54 40 2 0 0 0 0
0 0 0 0 9 52 19 92 11 9 24 18 187 339 444 236 160 246 241 204 257 263 330 410 508 625 736 755 585 574 534 509 524 491 395 239 229 137 109 10 114 128 82 103 82 105 42 14 0
0 0 0 0 79 3 7 20 0 1 32 13 0 367 432 109 84 143 120 72 58 33 75 108 180 225 260 325 367 329 375 340 304 291 182 103 277 247 152 38 74 140 143 132 79 42 9 0 0
0 0 0 0 61 13 0 20 0 48 50 1 32 102 119 59 205 182 39 0 0 0 11 28 69 16 32 19 281 320 277 242 305 291 331 259 282 300 235 107 6 28 0 0 0 0 0 0 0
0 0 0 0 0 2 0 16 41 107 122 7 93 199 153 146 58 22 0 0 0 0 0 0 0 0 0 17 51 36 101 142 172 251 275 246 228 305 336 373 175 44 0 0 0 0 0 0 0
0 0 0 0 0 0 5 21 147 107 24 33 171 256 152 143 15 0 0 0 0 0 0 0 0 0 0 0 16 15 63 113 192 249 260 373 366 376 325 167 0 0 0 0 0 0 0 0 0
0 0 0 0 0 0 0 48 164 0 0 80 146 175 158 87 0 0 0 0 0 0 0 0 0 0 0 0 0 1 85 223 337 394 416 276 196 41 0 0 0 0 0 0 0 0 0 0 0
0 0 0 0 0 0 0 0 0 0 0 68 117 66 17 0 0 0 0 0 0 0 0 9 0 11 0 0 0 1 39 93 155 263 40 5 0 0 0 0 0 0 0 0 0 0 0 0 0
0 0 0 0 0 0 0 0 0 1 0 96 85 0 0 0 0 0 0 0 0 0 12 38 107 7 0 0 0 0 0 0 7 0 0 0 0 0 0 0 0 0 0 0 0 0 0 0 0
0 0 0 0 0 0 0 0 0 8 1 8 6 0 0 0 0 0 0 0 0 14 183 115 11 0 0 0 0 0 0 0 0 0 0 0 0 0 0 0 0 0 0 0 0 0 0 0 0
0 0 0 0 0 0 0 0 0 0 2 0 0 0 0 0 0 0 0 0 0 197 90 60 4 4 1 0 0 0 0 0 0 0 0 0 0 0 0 0 0 0 0 0 0 0 0 0 0
0 0 0 0 0 0 0 0 0 0 1 0 0 0 0 0 0 0 0 3 28 36 2 5 2 2 1 0 0 0 0 0 0 0 0 0 0 0 0 0 0 0 0 0 0 0 0 0 0
0 0 0 0 0 0 0 0 0 0 0 0 0 0 0 0 0 0 0 8 174 273 267 2 0 2 0 0 0 0 0 0 0 0 0 0 0 0 0 0 0 0 0 0 0 0 0 0 0
0 0 0 0 0 0 0 0 0 0 0 0 0 0 0 0 0 0 0 0 141 130 171 134 0 0 0 0 0 0 0 0 0 0 0 0 0 0 0 0 0 0 0 0 0 0 0 0 0
0 0 0 0 0 0 0 0 0 0 0 0 0 0 0 0 0 0 0 0 0 0 0 4 0 0 0 0 0 0 0 0 0 0 0 0 0 0 0 0 0 0 0 0 0 0 0 0 0
0 0 0 0 0 0 0 0 0 0 0 0 0 0 0 0 0 0 0 0 0 0 0 0 0 0 0 0 0 0 0 0 0 0 0 0 0 0 0 0 0 0 0 0 0 0 0 0 1
0 0 0 0 0 0 0 0 0 0 0 0 0 0 0 0 0 0 0 0 0 0 0 0 0 0 0 0 0 0 0 0 0 0 0 0 0 0 0 0 0 0 0 0 0 0 2 10 20
0 0 0 0 0 0 0 0 0 0 0 0 0 0 0 0 0 0 0 0 0 0 0 0 0 0 0 0 0 0 0 0 0 0 0 0 0 0 0 0 0 0 0 0 1 20 36 41 32
0 0 0 2 0 0 0 0 0 0 0 0 0 0 0 0 0 0 0 0 0 0 0 0 0 0 0 0 0 0 0 0 0 0 0 0 0 0 0 0 0 0 0 6 13 53 64 80 86
0 0 2 0 0 0 0 0 0 0 0 0 0 0 0 0 0 0 0 0 0 0 0 0 0 0 0 0 0 0 0 0 0 0 0 0 0 0 0 0 0 0 0 0 5 49 95 77 85
0 0 0 0 0 0 0 0 0 0 0 0 0 0 0 0 0 0 0 0 0 0 0 0 0 0 0 0 0 0 0 0 0 0 0 0 0 0 0 0 0 0 18 38 67 98 51 44 79
0 0 0 0 0 0 0 0 0 0 0 0 0 0 0 0 0 0 0 0 0 0 0 0 0 0 0 0 0 0 0 0 0 0 0 0 0 0 0 0 1 11 36 61 56 67 34 50 85
0 0 0 0 0 0 0 0 0 0 0 0 0 0 0 0 0 0 0 0 0 0 0 0 0 0 0 0 0 0 0 0 0 0 0 0 0 0 0 0 0 10 14 4 7 2 0 7 11
0 0 0 0 0 0 0 0 0 0 0 0 0 0 0 0 0 0 0 0 0 0 0 0 0 0 0 0 0 0 0 0 0 0 0 0 0 0 0 0 0 0 0 0 2 4 0 0 0

GFSSGP_con_sbcape_042.txt.gz
CAPE
0 0 0 0 0 0 0 0 74 363 362 268 204 275 457 608 409 382 496 487 524 745 689 779 822 1022 1144 1279 1358 1361 1159 908 776 751 706 671 738 813 845 605 542 311 69 43 42 25 0 0 0
0 0 0 0 0 0 0 0 21 482 328 64 52 197 230 292 584 551 575 628 622 614 769 819 780 1034 1358 1389 1375 1365 1186 929 904 777 683 698 805 688 524 516 532 170 10 0 0 0 0 0 0
0 0 0 0 0 2 5 24 537 288 47 15 0 20 12 74 570 476 641 745 594 798 924 1060 896 1045 1264 1350 1275 1313 1248 1196 1087 926 757 792 601 494 523 342 368 132 0 0 0 0 0 0 0
0 0 0 0 0 0 10 562 595 126 48 0 1 2 126 275 270 532 843 737 875 969 1021 835 968 1017 1370 1321 1419 1356 1232 1114 1033 1018 851 519 467 487 341 250 294 3 0 0 0 0 0 0 0
0 0 0 0 0 0 37 493 298 118 29 2 0 24 202 516 529 1080 1070 834 946 1000 1121 1217 933 1096 1325 1546 1429 1252 1137 1081 1080 1068 822 547 499 314 192 139 26 0 0 0 0 0 0 0 0
0 0 0 0 10 10 388 406 238 145 24 0 0 72 338 640 868 994 924 1027 1022 1086 1044 1059 955 1143 1271 1326 1141 967 986 1046 1004 881 835 676 511 324 72 0 0 0 0 0 0 0 0 0 0
0 0 0 4 44 166 565 428 135 73 63 97 145 155 557 752 872 706 942 844 1226 1281 1248 1189 1088 970 877 820 780 792 865 815 707 694 706 557 436 339 236 213 22 17 24 13 0 0 1 6 0
0 0 0 55 187 518 567 82 43 0 70 203 248 261 669 390 535 783 1007 1247 1377 1287 892 605 567 623 651 752 655 687 612 517 507 532 387 262 170 118 33 131 151 80 91 84 69 19 0 0 0
0 0 34 314 416 261 372 87 38 53 103 132 97 504 889 668 757 1028 977 1040 909 627 528 407 386 416 350 318 543 353 399 372 343 320 198 112 271 252 124 73 171 104 40 10 0 0 0 0 0
0 0 12 134 420 129 8 89 47 76 144 113 248 913 1005 953 905 879 802 647 319 173 150 213 206 197 172 29 236 273 118 268 448 417 496 464 588 526 309 183 19 1 0 0 0 0 0 0 0
0 0 0 0 170 52 14 128 198 130 280 256 323 1094 989 987 850 812 366 39 3 32 31 53 148 199 106 114 113 68 267 463 661 749 780 809 730 831 731 614 319 117 0 0 0 0 0 0 0
0 0 0 0 85 0 173 197 335 327 136 207 328 1194 1080 829 704 246 0 0 0 3 6 24 65 182 153 72 169 352 424 591 657 847 994 977 975 1087 1077 666 167 80 45 40 12 0 0 0 0
0 0 0 10 1 4 85 200 328 130 264 424 1009 1065 680 384 77 0 0 0 2 48 70 80 52 92 178 282 418 510 585 705 960 970 1165 1125 1162 849 457 241 120 45 3 0 0 0 0 0 0
0 0 0 0 9 0 56 194 308 153 364 737 1047 657 179 58 0 0 0 0 21 150 215 304 276 229 264 340 413 338 238 456 645 888 539 209 294 280 236 108 1 0 0 0 0 0 0 0 0
0 0 0 0 0 0 32 84 0 68 339 547 507 347 80 0 0 0 0 0 12 251 455 487 502 330 281 193 58 19 8 59 118 256 154 154 246 206 35 0 0 0 0 0 0 0 0 0 0
0 0 0 0 0 0 0 0 0 173 341 457 376 220 113 0 0 0 2 0 0 212 572 560 359 265 107 8 0 0 0 0 4 31 43 6 0 0 0 0 0 0 0 0 0 0 0 0 0
0 0 0 0 0 0 0 0 0 236 292 417 379 262 154 112 47 93 200 188 142 400 673 528 430 223 10 0 0 0 0 0 0 0 0 0 0 0 0 0 0 0 0 0 0 0 0 0 0
5 0 0 0 0 0 0 0 0 221 324 334 359 325 243 202 116 239 409 429 402 686 734 568 506 1 1 3 0 0 0 0 0 0 0 0 0 0 0 0 0 0 0 0 0 0 0 0 0
1 2 0 0 0 0 0 0 0 256 393 341 341 329 279 221 230 421 602 617 604 511 586 516 189 11 0 65 0 0 0 0 0 0 0 0 0 0 0 0 0 0 0 0 0 0 0 0 0
0 13 28 0 0 37 69 91 8 58 361 423 411 392 386 384 541 558 733 808 740 590 664 568 671 618 277 51 1 0 0 0 0 0 0 0 0 0 0 0 0 0 0 0 0 0 0 0 0
39 73 44 50 0 20 58 105 72 0 57 100 214 365 401 603 720 714 773 946 887 881 972 805 502 167 2 0 0 0 0 0 0 0 0 0 0 0 0 0 0 0 0 0 0 0 0 2 1
84 5 5 7 47 93 3 108 164 98 31 59 113 266 480 479 295 203 50 240 365 395 204 4 0 0 0 0 0 0 16 21 1 0 0 0 0 0 0 0 0 0 0 1 5 7 21 24 34
93 3 19 3 32 38 9 24 177 90 109 13 112 317 338 183 8 0 0 0 0 0 0 0 0 0 0 0 0 12 11 0 0 0 0 0 0 0 0 0 0 0 16 34 52 59 64 66 72
30 80 81 65 83 70 18 13 0 69 69 91 58 253 181 32 0 0 0 0 0 0 0 0 0 0 0 0 0 0 0 0 0 2 1 1 0 0 1 4 8 29 50 64 76 86 73 74 73
80 65 3 22 41 18 0 2 0 0 0 75 86 144 15 0 0 0 0 0 0 0 0 0 0 0 0 0 0 0 0 0 0 0 0 0 0 4 14 25 40 37 37 74 86 76 70 69 73
37 17 0 0 0 2 0 18 109 0 0 0 65 68 0 0 0 0 0 0 0 0 0 0 0 0 0 0 0 0 0 0 0 0 0 0 11 18 16 37 43 32 45 72 65 75 86 89 91
14 16 0 9 0 1 0 0 1 0 0 0 94 32 0 0 0 0 0 0 0 0 0 0 0 0 0 0 0 0 0 0 0 0 0 0 1 4 0 0 3 6 19 45 72 86 81 85 76
14 0 2 0 0 0 0 0 0 0 0 0 36 1 0 0 0 0 0 0 0 0 0 0 0 0 0 0 0 0 0 0 0 0 0 0 0 0 0 0 0 2 9 35 63 64 63 60 67
0 0 0 0 0 0 0 0 0 0 0 0 14 0 0 0 0 0 0 0 0 0 0 0 0 0 0 0 0 0 0 0 0 0 0 0 0 0 0 0 1 6 20 46 43 53 48 23 37
0 0 0 0 0 0 0 0 0 0 0 0 0 0 0 0 0 0 0 0 0 0 0 0 0 0 0 0 0 0 0 0 0 0 0 0 0 0 0 0 4 18 30 37 40 22 23 36 24

GFSSGP_con_sbcape_045.txt.gz
CAPE
0 0 0 0 0 0 0 0 8 474 709 664 584 430 739 620 771 817 488 502 662 626 535 466 863 1023 1154 1234 1245 1227 1109 890 792 700 710 748 805 760 580 488 447 160 57 13 0 0 0 0 0
0 0 0 0 0 0 2 26 2 939 546 474 126 454 373 406 804 775 571 510 662 619 577 512 818 1092 1331 1356 1286 1176 989 831 787 717 700 752 642 526 467 284 397 142 0 0 0 0 0 0 0
0 0 0 0 0 0 56 83 1016 622 460 129 1 8 8 160 552 420 492 647 718 522 728 816 864 1201 1380 1331 1242 1087 1118 1146 909 827 737 582 435 461 272 208 311 32 0 0 0 0 0 0 0
0 0 0 0 3 23 8 780 636 406 182 17 0 0 0 129 1 477 537 512 612 901 1092 673 888 1148 1292 1283 1197 1145 1052 1074 1023 972 598 410 413 247 170 167 122 0 0 0 0 0 0 0 0
0 0 0 0 0 20 4 735 434 380 153 58 8 1 17 130 6 286 701 617 579 776 993 1055 856 1034 1086 1209 1122 1161 1064 1048 1077 849 690 461 262 133 138 35 9 0 0 0 0 0 0 0 0
0 0 1 9 14 18 168 542 295 183 61 23 15 6 50 354 75 294 492 597 568 946 904 969 829 894 1053 1157 1120 997 1034 1028 902 808 728 418 231 151 27 5 15 1 0 0 0 0 0 0 0
0 1 4 30 53 109 377 22 388 17 48 30 13 77 669 704 440 566 382 311 473 992 1154 1051 1056 985 827 732 715 751 811 763 679 712 598 459 400 321 251 163 26 16 20 0 31 4 0 0 0
0 1 6 32 68 142 412 200 37 30 7 175 319 298 633 905 689 0 339 537 1071 931 906 545 610 601 643 716 614 657 588 494 517 458 301 177 116 102 160 213 142 64 62 93 52 1 0 0 0
0 0 31 71 72 337 275 70 16 2 21 55 226 510 739 1136 1030 254 512 686 1039 577 389 369 344 388 405 502 645 441 489 429 362 209 188 27 68 69 145 96 180 33 10 0 0 0 0 0 0
0 8 25 188 37 104 395 65 26 4 0 140 632 1276 1260 1122 1197 907 911 910 485 323 257 282 307 292 192 66 253 181 62 141 315 322 306 567 485 591 380 203 132 0 0 0 0 0 0 6 13
0 1 3 244 16 81 0 0 13 54 0 70 144 1109 1464 1345 917 821 960 565 88 69 64 113 196 207 65 145 165 72 178 513 688 695 731 855 582 723 609 744 493 397 16 125 24 45 34 1 0
0 0 0 2 149 20 6 18 66 43 42 198 552 1331 1226 1096 1038 986 308 0 0 0 0 40 152 214 148 81 77 272 392 560 657 981 962 889 1044 1120 867 651 387 260 168 195 110 69 0 0 0
0 0 0 36 0 0 15 34 110 46 63 89 1214 1116 1094 972 864 69 0 0 17 24 34 12 78 168 371 438 586 664 693 787 1021 1022 1227 1286 1284 1036 896 545 361 215 83 60 37 10 0 0 1
0 5 0 6 8 10 26 112 143 137 177 591 939 830 486 312 6 0 0 42 118 125 199 132 188 320 573 753 756 652 618 723 1043 1139 847 665 704 767 662 527 184 51 5 1 0 0 0 0 0
0 3 0 1 67 71 79 115 82 194 218 490 470 311 118 0 0 0 0 136 312 357 391 470 540 529 610 325 93 88 108 122 257 444 470 442 553 605 377 91 2 0 0 0 0 0 0 0 0
0 0 0 0 60 53 10 53 38 190 258 255 215 67 0 0 0 0 0 51 428 641 706 649 535 654 418 115 4 4 9 0 40 133 100 13 3 0 0 0 0 0 0 0 0 0 0 0 0
0 0 0 0 36 43 32 0 36 193 306 351 237 143 24 1 0 43 50 29 176 747 917 766 754 606 31 0 2 0 0 0 0 0 0 0 0 0 0 0 0 0 0 0 0 0 0 0 0
1 0 7 30 13 14 0 5 84 231 256 423 380 264 172 148 165 285 312 256 231 688 1049 918 681 333 3 50 2 0 0 0 0 0 0 0 0 0 0 0 0 0 0 0 0 0 0 0 0
0 0 12 10 0 1 4 10 58 197 236 339 472 450 383 408 371 491 566 548 473 911 1089 760 343 104 440 554 20 0 0 0 0 0 0 0 0 0 0 0 0 0 0 0 0 0 0 0 0
0 8 1 0 0 29 13 46 46 242 291 286 373 491 545 522 544 688 903 912 1030 998 886 644 503 550 759 501 106 13 1 0 0 0 0 0 0 0 0 0 0 0 0 0 0 0 0 0 2
25 9 13 56 20 1 93 135 177 166 298 380 409 424 494 575 835 960 1104 1100 780 616 717 719 792 526 242 4 5 7 0 0 0 0 0 0 0 0 0 0 0 0 0 0 0 3 7 9 17
73 79 58 61 92 59 80 73 79 211 264 328 440 559 604 786 1030 1119 1215 1208 1099 1171 949 819 161 5 0 0 0 0 4 2 21 10 0 0 0 0 0 0 0 0 1 7 17 19 36 62 41
30 72 103 91 65 14 103 61 118 284 200 242 397 529 737 899 895 778 746 738 560 482 153 0 0 0 0 0 1 13 18 15 3 0 6 6 9 1 0 0 2 7 15 25 48 75 88 74 62
147 157 155 125 104 213 116 149 90 265 224 232 288 471 696 581 398 91 74 25 9 30 2 0 1 1 0 0 5 7 10 0 3 17 10 11 4 2 5 7 12 18 25 25 32 62 57 83 83
165 199 333 220 168 177 158 110 45 84 92 131 296 427 525 383 68 0 0 0 0 0 0 0 0 2 4 13 6 0 0 0 0 0 1 1 0 0 2 5 10 18 15 14 30 57 93 71 69
197 156 151 38 85 103 145 1 221 127 74 70 287 402 452 280 6 0 0 0 0 0 0 0 7 10 17 12 1 0 0 0 0 0 0 0 0 0 4 12 5 0 1 4 34 68 98 82 92
197 56 154 122 207 22 0 80 188 55 51 36 317 391 381 132 1 0 0 0 0 0 1 8 10 6 8 0 0 0 0 0 0 0 0 0 2 0 0 0 0 0 1 5 21 74 92 103 84
72 93 63 24 0 0 15 0 98 6 0 0 245 403 338 75 0 0 1 0 4 4 18 26 16 8 2 0 0 0 0 0 0 0 0 0 0 0 0 0 0 0 2 10 22 46 61 69 67
111 38 4 14 4 3 0 22 0 0 0 0 99 326 274 71 5 1 5 8 6 14 6 11 2 0 0 0 0 0 0 0 0 0 0 0 0 0 0 0 0 0 3 18 36 32 32 58 46
9 12 18 0 0 0 16 0 0 0 0 0 6 143 143 64 32 14 16 10 4 1 1 1 0 0 0 0 0 0 0 0 0 0 0 0 0 0 0 0 0 3 10 30 16 18 32 45 43

GFSSGP_con_sbcape_048.txt.gz
CAPE
0 0 0 0 0 0 0 0 0 411 309 757 772 909 874 799 971 618 450 360 265 166 206 389 856 1156 1217 1209 1248 1203 1112 954 699 862 905 934 756 637 510 392 289 136 0 0 0 0 0 0 0
0 0 0 0 0 0 0 345 654 837 648 428 322 320 559 880 873 667 668 582 377 239 171 302 883 1239 1332 1227 1179 1143 1031 903 858 837 833 642 538 448 203 282 178 73 0 0 0 0 0 0 0
0 0 0 0 0 0 0 949 454 827 588 315 128 97 280 485 283 655 764 565 518 371 289 602 914 1142 1259 1162 1133 1142 1134 949 899 843 584 436 306 137 134 262 140 46 0 0 0 0 0 0 0
0 0 0 0 0 0 110 333 849 606 300 147 135 11 37 116 9 622 543 520 539 594 527 568 871 1083 1172 1154 1183 1150 998 933 850 613 528 346 138 138 91 226 175 17 0 0 0 0 0 0 0
0 0 0 0 0 0 0 793 606 434 222 197 56 10 0 54 473 493 347 273 567 331 345 715 764 927 1167 1298 1231 1007 967 864 670 616 571 330 120 68 130 209 169 57 0 0 0 0 0 0 1
0 0 0 0 0 0 629 633 222 188 121 25 11 0 0 0 136 309 121 180 336 144 455 527 734 840 937 1034 954 847 825 678 663 634 491 344 253 179 175 169 140 86 34 0 0 0 0 0 0
0 0 0 0 0 15 579 311 109 305 133 1 9 73 306 205 8 439 294 307 197 354 548 744 833 798 663 618 607 599 530 478 570 551 411 348 292 233 212 217 198 133 84 20 0 0 0 0 0
0 0 0 0 7 288 267 69 392 37 10 0 41 187 482 627 599 17 126 245 207 349 380 787 806 802 579 527 498 407 334 368 359 254 179 93 82 137 171 170 174 122 71 28 0 0 0 0 0
0 0 0 27 431 314 70 0 0 71 82 58 109 250 642 380 279 5 47 122 200 272 581 548 454 528 531 553 461 369 394 357 247 149 98 4 0 17 102 112 191 78 0 0 0 0 0 0 3
0 0 3 181 295 45 1 21 2 35 79 17 1037 1339 1317 708 3 124 36 131 201 190 206 284 374 379 431 270 323 220 135 83 83 76 49 87 492 261 136 92 161 48 6 3 0 0 0 10 0
0 1 2 277 69 0 1 0 99 7 0 3 1035 1230 1261 1170 478 654 282 150 245 92 109 210 339 343 225 55 242 46 98 425 616 655 671 731 746 461 165 318 123 73 11 18 0 9 12 8 0
0 7 2 368 57 12 0 3 0 1 35 1 293 1248 945 808 748 569 422 8 0 32 103 187 283 459 326 112 125 94 393 680 614 876 836 834 803 808 770 603 473 345 17 95 35 33 8 0 0
0 0 0 1 180 42 31 49 0 49 68 26 423 725 792 707 889 387 12 0 0 7 86 138 251 339 335 655 671 516 641 666 650 695 759 685 950 753 728 441 376 82 1 0 0 0 0 0 0
0 5 2 5 9 4 0 0 2 97 946 991 573 417 370 652 380 29 0 42 19 21 48 94 193 500 772 565 502 276 223 443 658 630 592 660 697 571 476 192 2 0 0 0 0 0 0 0 0
25 0 0 0 20 40 125 17 34 119 481 513 371 370 385 27 0 0 20 78 92 126 109 213 364 670 417 119 3 1 7 38 114 215 155 49 31 0 0 0 0 0 0 0 0 0 0 0 0
3 0 0 1 24 16 3 85 118 136 183 228 171 108 13 0 0 0 76 205 206 239 259 366 539 433 85 0 0 0 0 0 0 2 0 0 0 0 0 0 0 0 0 0 0 0 0 0 0
0 0 0 3 0 0 4 6 50 136 142 133 71 9 0 0 0 0 43 318 463 487 503 551 604 239 66 0 0 0 0 0 0 0 0 0 0 0 0 0 0 0 0 0 0 0 0 0 0
0 0 0 0 0 3 33 1 30 121 179 129 63 0 0 0 0 0 6 86 684 863 705 748 391 125 0 3 3 0 0 0 0 0 0 0 0 0 0 0 0 0 0 0 0 0 0 0 0
0 0 0 1 0 0 1 11 0 54 139 251 175 76 28 3 119 289 280 251 504 1095 907 612 267 151 10 262 23 0 0 0 0 0 0 0 0 0 0 0 0 0 0 0 0 0 0 0 0
0 11 25 0 0 0 3 1 5 14 76 264 309 228 181 206 319 493 585 641 742 1065 763 617 479 203 290 498 18 1 0 0 0 0 0 0 0 0 0 0 0 0 0 0 0 0 0 0 0
9 5 40 20 1 0 13 0 3 25 25 88 237 371 362 397 465 585 751 892 1353 1092 679 565 568 353 565 236 11 0 0 0 0 0 0 0 0 0 0 0 0 0 0 0 0 0 0 0 0
73 16 37 30 18 9 19 23 66 7 80 107 161 264 374 447 589 789 957 960 972 684 628 603 636 650 280 0 0 0 0 0 0 0 0 0 0 0 0 0 0 0 0 0 0 0 0 0 1
25 28 58 56 62 26 0 0 42 9 70 121 349 396 468 592 689 961 1000 946 708 761 810 843 658 48 0 0 0 0 47 2 8 0 0 0 0 1 0 0 0 0 0 0 3 4 1 5 8
67 86 81 71 128 111 11 42 11 1 0 72 283 409 559 660 985 822 1001 961 903 1119 787 82 0 0 0 0 12 27 49 1 0 0 0 0 6 4 1 2 0 0 0 0 0 0 0 4 14
22 50 198 56 122 247 52 67 89 0 177 126 269 440 646 846 751 531 593 435 205 89 53 3 0 0 0 0 5 10 0 0 0 0 0 0 0 0 0 0 0 0 0 0 0 0 0 16 36
55 75 139 118 298 295 112 79 251 127 47 246 349 411 719 570 324 102 68 3 5 11 0 0 0 0 0 14 6 0 0 0 0 0 0 0 0 0 0 0 0 0 0 0 0 0 0 14 46
23 182 112 74 342 532 1 0 205 69 55 96 257 384 566 452 139 0 0 0 0 0 0 0 0 1 3 5 0 0 0 0 0 0 0 0 0 0 0 0 0 0 0 0 0 0 10 33 7
0 8 153 78 25 1 2 16 220 8 9 15 279 455 588 435 184 2 0 0 1 0 0 0 12 0 1 0 0 0 0 0 0 0 0 0 0 0 0 0 0 0 0 0 0 3 10 0 1
72 51 0 0 208 226 230 40 1 0 0 0 31 434 555 437 189 17 0 1 2 8 12 8 8 0 0 0 0 0 0 0 0 0 0 0 0 0 0 0 0 0 0 0 2 5 0 0 0
1 13 36 574 32 158 364 39 0 0 0 0 0 265 449 425 160 14 1 6 7 19 2 7 5 0 0 0 0 0 0 0 0 0 0 0 0 0 0 0 0 0 0 2 0 0 0 4 6

GFSSGP_con_sbcape_051.txt.gz
CAPE
0 0 0 0 0 0 0 0 78 838 779 385 870 924 833 799 806 420 418 77 84 425 814 1039 1036 1129 1173 1171 1197 1121 1034 910 812 965 747 613 379 288 241 117 60 0 0 0 0 0 0 0 0
0 0 0 0 0 0 0 122 762 488 765 323 279 738 845 1033 902 634 464 134 147 396 662 899 854 1027 1115 1154 1123 1009 945 873 914 654 515 411 208 196 45 13 35 0 0 0 0 0 0 0 0
0 0 0 0 0 0 0 71 883 672 599 388 175 95 484 677 728 773 509 207 125 174 530 857 878 1009 1011 1014 1098 1009 943 800 581 471 386 260 145 4 0 116 87 3 0 0 0 0 0 0 0
0 0 0 0 0 0 0 457 521 376 231 115 18 43 168 92 386 698 566 304 66 240 499 493 679 833 987 1164 1076 930 825 546 415 393 285 147 28 7 18 177 130 18 2 0 0 0 0 0 0
0 0 0 0 0 0 603 537 426 143 189 76 82 8 72 123 626 454 398 312 231 262 298 298 611 835 1066 1140 976 822 591 458 450 309 231 209 26 18 35 179 150 48 1 0 0 0 0 0 0
0 0 0 0 0 598 536 209 159 25 50 24 75 6 26 194 389 343 127 2 41 147 223 325 541 655 820 861 712 510 424 412 372 270 253 218 194 170 151 169 148 110 39 13 0 0 0 0 0
0 0 0 0 0 439 457 384 73 116 0 0 8 266 47 43 331 321 9 0 7 180 211 346 493 582 526 454 397 313 318 345 313 219 153 134 125 143 180 197 210 145 151 98 0 0 0 0 0
0 0 0 0 20 218 351 332 204 24 8 0 16 418 458 66 488 375 52 12 18 158 169 368 400 490 425 368 253 227 224 194 150 93 81 74 60 66 111 108 142 109 44 0 0 0 0 0 0
0 0 0 8 500 298 193 93 132 0 47 7 2 0 486 124 24 105 73 37 73 149 168 271 421 414 349 268 227 204 223 137 86 51 35 0 0 0 29 2 65 33 5 0 0 0 0 0 0
0 0 0 225 233 272 107 26 0 0 0 77 620 286 347 3 1 28 29 13 60 204 219 245 440 354 294 266 100 84 104 13 1 0 0 0 0 0 20 17 15 10 1 0 0 0 0 0 0
0 0 25 231 180 33 7 4 0 0 1 13 406 424 137 37 0 38 0 36 77 145 180 294 296 262 126 150 5 0 0 0 0 0 0 0 95 1 14 2 12 0 0 0 0 0 0 0 0
0 0 25 108 81 41 1 0 0 10 0 1 480 716 67 54 55 29 8 10 114 97 69 41 80 100 0 63 0 0 1 81 53 229 335 308 262 146 105 12 9 17 0 0 0 0 0 0 0
0 0 0 193 67 64 14 0 0 2 0 1 1200 1031 352 134 93 134 256 69 29 20 11 2 0 0 0 91 197 237 232 274 279 270 242 251 294 114 9 0 0 0 0 0 0 0 0 0 0
2 2 3 22 0 1 2 0 0 101 17 33 701 767 247 85 284 244 114 2 0 0 0 0 0 46 193 25 0 13 106 222 148 79 96 50 40 10 0 0 0 0 0 0 0 0 0 0 0
0 0 2 20 1 0 0 0 0 2 74 472 468 453 56 0 60 150 0 0 0 0 0 0 61 24 0 0 0 0 0 0 18 1 0 0 0 0 0 0 0 0 0 0 0 0 0 0 0
0 0 0 8 40 1 0 0 5 0 85 194 126 232 249 0 0 0 0 0 0 0 0 6 230 0 0 0 0 0 0 0 0 0 0 0 0 0 0 0 0 0 0 0 0 0 0 0 0
0 0 0 0 9 18 10 1 0 3 110 56 10 0 0 0 0 0 2 4 3 5 82 174 0 0 0 0 0 0 0 0 0 0 0 0 0 0 0 0 0 0 0 0 0 0 0 0 0
0 0 0 0 1 4 6 0 0 28 79 25 0 0 0 0 0 0 20 65 39 101 285 49 13 0 0 0 0 0 0 0 0 0 0 0 0 0 0 0 0 0 0 0 0 0 0 0 0
0 0 0 0 0 0 20 0 34 4 6 0 0 0 0 0 0 0 0 165 207 290 295 72 3 0 0 0 1 0 0 0 0 0 0 0 0 0 0 0 0 0 0 0 0 0 0 0 0
0 0 3 2 0 0 0 0 0 9 1 0 0 0 0 0 2 14 6 418 374 391 252 50 0 0 0 11 0 0 0 0 0 0 0 0 0 0 0 0 0 0 0 0 0 0 0 0 0
7 8 0 2 1 0 4 0 0 0 2 17 0 0 0 6 103 200 272 281 481 355 178 153 44 2 1 82 0 0 0 0 0 0 0 0 0 0 0 0 0 0 0 0 0 0 0 0 0
3 0 4 1 0 0 2 4 8 0 0 1 19 0 0 0 201 242 376 494 419 256 284 306 148 8 7 98 0 0 0 0 0 0 0 0 0 0 0 0 0 0 0 0 0 0 0 0 0
12 4 2 26 4 0 0 0 0 0 0 3 0 9 5 36 178 322 509 612 433 309 348 200 137 85 138 0 0 0 0 0 0 0 0 0 0 0 0 0 0 0 0 0 0 0 0 0 0
0 0 28 2 5 0 4 0 0 0 0 0 21 57 47 6 238 494 612 520 376 233 165 203 317 222 0 0 0 0 0 0 0 0 0 0 0 0 0 0 0 0 0 0 0 0 0 0 0
0 8 3 0 0 16 23 0 0 5 0 0 0 11 173 355 451 708 684 506 421 299 387 369 52 0 0 0 0 0 0 0 0 0 0 0 0 0 0 0 0 0 0 0 0 0 0 0 0
6 15 0 4 1 16 6 23 1 0 0 0 0 0 253 302 167 442 559 506 576 139 1 0 0 0 0 0 0 0 0 0 0 0 0 0 0 0 0 0 0 0 0 0 0 0 0 0 0
24 28 51 2 1 12 0 12 19 0 17 16 1 92 326 234 28 39 0 0 0 0 0 0 0 0 0 0 0 0 0 0 0 0 0 0 0 0 0 0 0 0 0 0 0 0 0 0 0
14 2 7 3 0 0 0 0 0 0 9 60 207 403 268 85 0 0 0 0 0 0 0 0 0 0 0 0 0 0 0 0 0 0 0 0 0 0 0 0 0 0 0 0 0 0 0 0 0
1 6 0 0 0 0 13 0 0 0 1 0 58 269 290 136 0 0 0 0 0 0 0 0 0 0 0 0 0 0 0 0 0 0 0 0 0 0 0 0 0 0 0 0 0 0 0 0 0
9 9 14 0 0 0 0 0 0 0 0 0 0 140 182 61 0 0 0 0 0 0 2 5 0 0 0 0 0 0 0 0 0 0 0 0 0 0 0 0 0 0 0 0 0 0 0 0 0

GFSSGP_con_sbcape_054.txt.gz
CAPE
1 0 0 0 0 0 0 0 0 10 671 448 1035 1065 978 904 690 324 211 139 556 806 949 945 968 1020 1075 1075 1147 1106 1046 930 519 411 408 329 213 122 57 25 32 14 0 0 0 0 0 0 0
0 0 0 0 0 0 0 0 789 626 649 373 461 957 970 1169 882 641 192 317 719 673 934 820 856 960 1057 1104 1126 1028 993 751 670 356 229 235 96 63 0 1 50 54 0 0 0 0 0 0 0
0 0 0 0 0 0 0 50 831 671 658 410 237 337 637 642 647 920 300 194 785 717 771 823 717 804 1073 1031 908 1014 979 711 552 346 259 190 66 8 4 52 103 68 0 0 0 0 0 0 0
0 0 0 0 0 0 0 127 777 406 230 144 132 215 223 524 907 930 455 434 642 848 795 608 674 806 995 957 989 924 651 504 385 280 231 151 40 52 39 157 134 25 0 0 0 0 0 0 0
0 0 0 0 0 20 321 207 204 243 136 141 32 13 155 861 732 370 469 500 469 549 528 459 593 781 850 939 997 689 524 434 305 270 228 193 84 57 78 189 135 75 0 0 0 0 0 0 0
0 0 0 0 0 483 327 148 207 91 31 13 5 5 73 557 469 211 133 271 15 55 105 200 320 451 609 870 633 452 448 337 272 258 226 238 205 137 141 145 126 106 31 12 0 0 0 0 0
0 0 0 0 0 18 326 274 174 123 107 33 0 136 21 458 263 30 60 59 49 94 118 125 195 297 522 489 366 347 312 230 227 213 194 166 150 171 181 163 143 107 76 8 0 0 0 0 0
0 0 0 0 8 189 348 320 135 41 10 0 10 365 0 298 88 6 0 66 45 17 37 174 316 347 379 320 270 251 215 146 142 128 97 80 82 96 118 87 113 103 25 0 0 0 0 0 0
0 0 0 0 192 189 197 10 39 13 18 3 85 276 248 271 30 3 5 46 51 138 41 174 149 285 344 226 232 218 167 112 88 75 45 1 0 0 12 1 36 20 0 0 0 0 0 0 0
0 0 0 0 172 163 30 2 13 9 0 307 286 534 304 293 40 33 58 71 40 80 168 184 200 353 263 224 143 104 64 21 4 0 0 0 0 0 1 0 0 0 0 0 0 0 0 0 0
0 0 4 57 47 30 10 6 0 0 0 227 375 193 105 106 45 5 30 79 48 86 117 148 258 256 203 107 37 36 3 0 0 0 0 0 0 0 0 0 0 0 0 0 0 0 0 0 0
0 0 1 27 12 4 1 0 0 0 0 344 511 240 9 66 9 3 0 19 16 69 113 275 249 164 89 12 0 0 0 0 0 1 0 0 1 0 0 0 0 0 0 0 0 0 0 0 0
0 0 28 28 43 0 0 0 0 0 6 224 32 161 54 32 0 1 15 31 41 95 104 225 221 25 7 6 1 1 48 100 121 100 94 39 9 0 0 0 0 0 0 0 0 0 0 0 0
0 142 111 41 34 41 7 0 0 9 13 671 365 127 71 50 29 31 16 17 74 33 7 51 87 1 47 32 88 58 111 58 2 0 1 0 0 0 0 0 0 0 0 0 0 0 0 0 0
0 1 4 0 0 3 0 0 27 8 40 523 646 133 209 64 82 67 72 16 36 16 22 7 44 29 5 1 0 0 0 0 0 0 0 0 0 0 0 0 0 0 0 0 0 0 0 0 0
0 0 0 16 7 0 0 6 11 9 302 429 575 221 428 85 50 163 186 65 32 18 17 131 25 0 0 0 0 0 0 0 0 0 0 0 0 0 0 0 0 0 0 0 0 0 0 0 0
0 0 0 6 11 0 0 3 4 3 20 303 455 127 106 205 164 166 50 9 10 5 0 22 0 0 0 0 0 0 0 0 0 0 0 0 0 0 0 0 0 0 0 0 0 0 0 0 0
0 0 0 0 51 38 35 5 0 0 60 27 195 118 0 2 23 16 0 0 0 0 55 0 0 0 0 0 0 0 0 0 0 0 0 0 0 0 0 0 0 0 0 0 0 0 0 0 0
0 0 0 0 0 14 9 0 0 2 18 0 0 11 0 0 0 0 0 0 0 42 19 0 0 0 0 0 0 0 0 0 0 0 0 0 0 0 0 0 0 0 0 0 0 0 0 0 0
1 0 0 0 0 9 0 0 0 0 23 0 0 0 0 0 0 0 0 0 26 185 65 0 0 0 0 0 0 0 0 0 0 0 0 0 0 0 0 0 0 0 0 0 0 0 0 0 0
0 0 0 0 0 0 0 0 0 0 0 0 0 0 0 0 0 1 52 49 175 217 79 9 0 0 0 0 0 0 0 0 0 0 0 0 0 0 0 0 0 0 0 0 0 0 0 0 0
0 0 0 0 0 0 0 0 0 0 0 0 0 0 0 0 0 27 127 209 209 186 62 11 0 0 0 0 0 0 0 0 0 0 0 0 0 0 0 0 0 0 0 0 0 0 0 0 0
0 0 0 0 0 0 0 0 0 0 0 0 0 0 0 0 0 89 338 334 243 86 51 10 0 0 0 0 0 0 0 0 0 0 0 0 0 0 0 0 0 0 0 0 0 0 0 0 0
0 1 0 0 0 0 1 0 0 0 0 0 0 0 0 0 0 72 384 420 289 217 120 58 37 1 0 0 0 0 0 0 0 0 0 0 0 0 0 0 0 0 0 0 0 0 0 0 0
0 0 1 3 0 0 0 0 0 0 0 0 0 0 0 0 25 299 547 494 372 334 279 113 26 7 0 0 0 0 0 0 0 0 0 0 0 0 0 0 0 0 0 0 0 0 0 0 0
0 0 0 0 0 0 0 5 4 0 0 0 0 0 3 0 213 464 443 441 351 190 38 159 63 0 0 0 0 0 0 0 0 0 0 0 0 0 0 0 0 0 0 0 0 0 0 0 0
0 0 0 1 0 11 0 0 0 0 40 6 0 0 98 148 410 452 304 187 194 44 3 0 0 0 0 0 0 0 0 0 0 0 0 0 0 0 0 0 0 0 0 0 0 0 0 0 0
0 0 0 0 0 0 0 0 0 0 59 29 0 0 127 16 40 147 143 75 0 0 0 0 0 0 0 0 0 0 0 0 0 0 0 0 0 0 0 0 0 0 0 0 0 0 0 0 0
0 0 0 0 0 0 0 0 0 0 0 131 13 32 176 6 0 0 6 0 0 0 0 0 0 0 0 0 0 0 0 0 0 0 0 0 0 0 0 0 0 0 0 0 0 0 0 0 0
0 0 0 0 0 0 0 0 0 0 0 0 0 77 71 1 0 0 0 0 0 0 0 0 0 0 0 0 0 0 0 0 0 0 0 0 0 0 0 0 0 0 0 0 0 0 0 0 0

GFSSGP_con_sbcape_057.txt.gz
CAPE
1 0 0 0 0 0 0 0 0 0 515 914 969 1068 988 904 698 259 122 153 820 1032 1026 1054 971 1039 988 999 979 1031 972 542 267 182 224 208 116 103 121 120 106 36 0 0 0 0 0 39 295
0 0 0 0 0 0 0 0 676 422 761 688 563 863 1100 1117 1081 551 188 653 963 1168 1038 981 953 969 1008 975 1009 1040 942 500 301 199 157 118 69 48 53 79 122 48 0 0 0 0 0 0 64
0 0 0 0 0 0 0 0 0 696 689 378 315 412 644 717 1016 546 472 723 915 1076 895 994 809 881 1016 1059 1020 1041 923 610 340 250 184 74 68 43 74 188 119 75 0 0 0 0 0 0 0
0 0 0 0 0 0 0 182 118 340 213 104 68 162 364 744 1010 636 705 946 881 1059 993 652 613 831 978 1130 1113 944 744 454 325 251 223 128 61 80 121 201 154 91 0 0 0 0 0 0 0
0 0 0 0 0 3 395 237 257 289 120 39 0 88 239 828 708 507 731 896 919 936 780 395 454 700 989 1112 1045 778 596 413 349 287 243 257 211 181 245 239 193 115 33 0 0 0 0 0 0
0 0 0 0 0 204 427 290 335 222 49 5 35 6 200 588 505 636 601 309 272 156 199 284 398 358 527 678 679 529 452 400 348 284 278 310 286 267 256 258 232 204 113 52 0 0 3 0 0
0 0 0 0 0 0 378 342 253 250 110 38 0 27 162 508 325 209 190 59 54 18 14 59 115 128 206 370 493 431 375 365 338 312 281 252 201 203 229 240 237 191 143 97 19 0 1 0 0
0 0 0 0 0 2 513 480 138 5 6 0 10 8 87 436 294 241 99 64 54 44 49 43 49 165 263 337 384 335 300 283 255 239 202 145 147 178 196 199 200 175 121 31 9 0 0 6 0
0 0 0 0 0 88 292 103 50 0 38 549 551 266 230 231 60 1 1 3 3 23 4 6 156 221 176 287 323 259 235 188 149 123 76 24 13 4 0 45 75 91 44 61 41 1 0 0 0
0 0 0 0 21 287 201 21 6 23 111 239 403 494 264 26 7 15 3 5 4 20 27 29 123 110 250 260 211 104 101 54 28 14 2 0 0 0 1 21 43 29 12 9 0 0 0 0 0
0 0 0 52 195 106 65 36 0 0 0 202 415 306 167 30 3 37 83 37 4 8 110 183 175 169 202 176 97 68 23 7 1 0 0 0 0 1 0 0 0 0 0 0 0 0 0 0 0
0 0 0 36 107 43 70 13 6 0 7 349 432 504 167 89 65 103 76 22 5 42 72 121 248 224 117 34 32 21 0 0 0 0 0 0 0 0 0 0 0 0 0 0 0 0 0 0 0
0 3 0 59 25 13 0 0 0 17 391 451 148 366 140 105 69 55 65 49 82 86 72 90 169 112 6 0 0 0 0 0 3 23 8 0 0 0 0 0 0 0 0 0 0 0 0 0 0
53 106 95 77 92 57 2 0 0 0 98 467 199 209 140 112 42 4 2 38 96 96 89 247 232 2 0 0 0 3 16 63 23 7 2 0 0 0 0 0 0 0 0 0 0 0 0 0 0
42 57 6 17 51 51 5 0 19 26 408 515 177 180 85 65 26 38 23 23 26 110 75 179 53 18 36 17 14 11 21 0 0 0 0 0 0 0 0 0 0 0 0 0 0 0 0 0 0
20 2 48 26 3 0 0 1 38 147 695 399 232 175 95 47 63 38 24 1 23 23 23 39 79 14 9 1 0 0 0 0 0 0 0 0 0 0 0 0 0 0 0 0 0 0 0 0 0
0 0 0 0 11 8 0 9 15 87 545 714 379 240 178 111 101 26 129 4 53 4 13 51 10 0 0 0 0 0 0 0 0 0 0 0 0 0 0 0 0 0 0 0 0 0 0 0 0
0 0 0 0 2 25 33 17 2 22 398 617 511 335 415 211 94 35 182 118 8 1 46 1 0 0 0 0 0 0 0 0 0 0 0 0 0 0 0 0 0 0 0 0 0 0 0 0 0
6 0 0 0 0 0 2 8 0 0 60 120 423 180 293 306 223 128 167 2 0 0 0 0 0 0 0 0 0 0 0 0 0 0 0 0 0 0 0 0 0 0 0 0 0 0 0 0 0
0 0 0 0 0 0 0 0 0 0 12 76 114 193 3 120 75 58 27 0 0 0 0 0 0 0 0 0 0 0 0 0 0 0 0 0 0 0 0 0 0 0 0 0 0 0 0 0 0
0 0 0 0 0 0 0 0 0 0 0 0 3 150 0 0 0 0 0 0 0 4 0 0 0 0 0 0 0 0 0 0 0 0 0 0 0 0 0 0 0 0 0 0 0 0 0 0 0
0 0 0 0 0 0 0 0 0 0 0 0 0 0 0 0 0 0 0 0 0 26 26 24 0 0 0 0 0 0 0 0 0 0 0 0 0 0 0 0 0 0 0 0 0 0 0 0 0
0 0 0 0 0 0 0 0 0 0 0 0 0 0 0 0 0 0 0 0 1 34 19 0 0 0 0 0 0 0 0 0 0 0 0 0 0 0 0 0 0 0 0 0 0 0 0 0 0
0 0 0 0 0 0 0 0 0 0 0 0 0 0 0 0 0 0 0 0 8 6 0 0 0 0 0 0 0 0 0 0 0 0 0 0 0 0 0 0 0 0 0 0 0 0 0 0 0
0 0 0 0 0 0 0 0 0 0 0 0 0 0 0 0 0 0 111 141 109 26 12 0 0 1 0 0 0 0 0 0 0 0 0 0 0 0 0 0 0 0 0 0 0 0 0 0 0
0 0 0 0 0 0 0 0 0 0 0 0 0 0 0 0 0 85 242 293 185 192 104 38 42 46 0 0 0 0 0 0 0 0 0 0 0 0 0 0 0 0 0 0 0 0 0 0 0
0 0 0 0 0 0 0 0 0 0 0 0 0 0 0 0 0 161 339 358 267 332 134 29 48 13 0 0 0 0 0 0 0 0 0 0 0 0 0 0 0 0 0 0 0 0 0 0 0
0 0 0 0 0 0 0 0 0 0 5 4 0 0 8 0 68 186 281 205 141 142 47 22 2 0 0 0 0 0 0 0 0 0 0 0 0 0 0 0 0 0 0 0 0 0 0 0 0
0 0 0 0 0 0 0 0 0 0 0 0 0 0 0 30 182 198 240 157 95 24 0 0 0 0 0 0 0 0 0 0 0 0 0 0 0 0 0 0 0 0 0 0 0 0 0 0 0
0 0 0 0 0 0 0 0 0 0 0 0 0 0 2 4 59 148 204 65 0 0 0 0 0 0 0 0 0 0 0 0 0 0 0 0 0 0 0 0 0 0 0 0 0 0 0 0 0